Time,TemperatureF,DewpointF,PressureIn,WindDirection,WindDirectionDegrees,WindSpeedMPH,WindSpeedGustMPH,Humidity,HourlyPrecipIn,Conditions,Clouds,dailyrainin,SoftwareType,DateUTC
2013-06-02 00:00:00,60.6,57.3,29.80,South,180,0.0,0.0,89,0.00,,,0.00,VWS V14.01,2013-06-02 05:00:00,
2013-06-02 00:30:00,59.8,57.5,29.81,South,180,0.0,0.0,92,0.00,,CLR,0.57,VWS V14.01,2013-06-02 05:30:00,
2013-06-02 00:41:00,60.6,57.3,29.80,South,180,0.0,0.0,89,0.00,,,0.00,VWS V14.01,2013-06-02 05:41:00,
2013-06-02 00:46:00,61.9,57.3,29.80,WNW,302,0.0,1.0,85,0.00,,CLR,0.00,VWS V14.01,2013-06-02 05:46:00,
2013-06-02 00:47:00,61.9,57.3,29.80,WNW,302,0.0,1.0,85,0.00,,CLR,0.00,VWS V14.01,2013-06-02 05:47:00,
2013-06-02 00:51:00,61.9,57.3,29.80,WNW,302,0.0,1.0,85,0.00,,CLR,0.00,VWS V14.01,2013-06-02 05:51:00,
2013-06-02 00:52:00,61.9,57.3,29.80,WNW,302,0.0,1.0,85,0.00,,CLR,0.00,VWS V14.01,2013-06-02 05:52:00,
2013-06-02 00:56:00,61.9,57.3,29.80,NW,307,0.0,1.0,85,0.00,,CLR,0.00,VWS V14.01,2013-06-02 05:56:00,
2013-06-02 00:57:00,61.9,57.3,29.80,NW,307,0.0,1.0,85,0.00,,CLR,0.00,VWS V14.01,2013-06-02 05:57:00,
2013-06-02 01:00:00,61.7,57.2,29.80,NW,307,0.0,1.0,85,0.00,,,0.00,VWS V14.01,2013-06-02 06:00:00,
2013-06-02 01:02:00,61.7,57.2,29.80,NW,307,0.0,0.0,85,0.00,,CLR,0.00,VWS V14.01,2013-06-02 06:02:00,
2013-06-02 01:03:00,61.7,57.2,29.80,NW,307,0.0,0.0,85,0.00,,CLR,0.00,VWS V14.01,2013-06-02 06:03:00,
2013-06-02 01:07:00,61.7,57.2,29.80,NW,307,0.0,0.0,85,0.00,,CLR,0.00,VWS V14.01,2013-06-02 06:07:00,
2013-06-02 01:08:00,61.7,57.2,29.80,NW,307,0.0,0.0,85,0.00,,CLR,0.00,VWS V14.01,2013-06-02 06:08:00,
2013-06-02 01:12:00,61.5,57.0,29.80,NW,307,0.0,0.0,85,0.00,,CLR,0.00,VWS V14.01,2013-06-02 06:12:00,
2013-06-02 01:13:00,61.5,57.0,29.80,NW,307,0.0,0.0,85,0.00,,CLR,0.00,VWS V14.01,2013-06-02 06:13:00,
2013-06-02 01:17:00,61.4,57.2,29.80,NW,307,0.0,0.0,86,0.00,,CLR,0.00,VWS V14.01,2013-06-02 06:17:00,
2013-06-02 01:18:00,61.4,57.2,29.80,NW,307,0.0,0.0,86,0.00,,CLR,0.00,VWS V14.01,2013-06-02 06:18:00,
2013-06-02 01:22:00,61.2,57.0,29.80,NW,307,0.0,0.0,86,0.00,,CLR,0.00,VWS V14.01,2013-06-02 06:22:00,
2013-06-02 01:23:00,61.2,57.0,29.80,NW,307,0.0,0.0,86,0.00,,CLR,0.00,VWS V14.01,2013-06-02 06:23:00,
2013-06-02 01:27:00,61.1,56.9,29.80,NW,307,0.0,0.0,86,0.00,,CLR,0.00,VWS V14.01,2013-06-02 06:27:00,
2013-06-02 01:28:00,61.1,56.9,29.80,NW,307,0.0,0.0,86,0.00,,CLR,0.00,VWS V14.01,2013-06-02 06:28:00,
2013-06-02 01:30:00,61.1,57.2,29.80,NW,307,0.0,0.0,87,0.00,,,0.00,VWS V14.01,2013-06-02 06:30:00,
2013-06-02 01:32:00,60.9,57.0,29.80,NW,307,0.0,0.0,87,0.00,,CLR,0.00,VWS V14.01,2013-06-02 06:32:00,
2013-06-02 01:33:00,60.9,57.0,29.80,NW,307,0.0,0.0,87,0.00,,CLR,0.00,VWS V14.01,2013-06-02 06:33:00,
2013-06-02 01:35:00,60.9,57.0,29.80,NW,307,0.0,0.0,87,0.00,,CLR,0.00,VWS V14.01,2013-06-02 06:35:00,
2013-06-02 01:37:00,60.8,56.9,29.80,NW,307,0.0,0.0,87,0.00,,CLR,0.00,VWS V14.01,2013-06-02 06:37:00,
2013-06-02 01:38:00,60.8,56.9,29.80,NW,307,0.0,0.0,87,0.00,,CLR,0.00,VWS V14.01,2013-06-02 06:38:00,
2013-06-02 01:40:00,60.8,56.9,29.80,NW,307,0.0,0.0,87,0.00,,CLR,0.00,VWS V14.01,2013-06-02 06:40:00,
2013-06-02 01:43:00,60.6,56.7,29.80,NW,307,0.0,0.0,87,0.00,,CLR,0.00,VWS V14.01,2013-06-02 06:43:00,
2013-06-02 01:44:00,60.6,56.7,29.80,NW,307,0.0,0.0,87,0.00,,CLR,0.00,VWS V14.01,2013-06-02 06:44:00,
2013-06-02 01:46:00,60.4,56.5,29.80,NW,307,0.0,0.0,87,0.00,,CLR,0.00,VWS V14.01,2013-06-02 06:46:00,
2013-06-02 01:48:00,60.4,56.8,29.80,NW,307,0.0,0.0,88,0.00,,CLR,0.00,VWS V14.01,2013-06-02 06:48:00,
2013-06-02 01:49:00,60.4,56.8,29.80,NW,307,0.0,0.0,88,0.00,,CLR,0.00,VWS V14.01,2013-06-02 06:49:00,
2013-06-02 01:51:00,60.3,56.7,29.80,NW,307,0.0,0.0,88,0.00,,CLR,0.00,VWS V14.01,2013-06-02 06:51:00,
2013-06-02 01:53:00,60.1,56.5,29.80,NW,307,0.0,0.0,88,0.00,,CLR,0.00,VWS V14.01,2013-06-02 06:53:00,
2013-06-02 01:54:00,60.1,56.5,29.80,NW,307,0.0,0.0,88,0.00,,CLR,0.00,VWS V14.01,2013-06-02 06:54:00,
2013-06-02 01:56:00,60.0,56.4,29.80,NW,307,0.0,0.0,88,0.00,,CLR,0.00,VWS V14.01,2013-06-02 06:56:00,
2013-06-02 01:58:00,60.0,56.4,29.80,NW,307,0.0,0.0,88,0.00,,CLR,0.00,VWS V14.01,2013-06-02 06:58:00,
2013-06-02 01:59:00,59.8,56.2,29.80,NW,307,0.0,0.0,88,0.00,,CLR,0.00,VWS V14.01,2013-06-02 06:59:00,
2013-06-02 02:00:00,59.8,56.2,29.80,NW,307,0.0,0.0,88,0.00,,,0.00,VWS V14.01,2013-06-02 07:00:00,
2013-06-02 02:01:00,59.8,56.2,29.80,NW,307,0.0,0.0,88,0.00,,CLR,0.00,VWS V14.01,2013-06-02 07:01:00,
2013-06-02 02:03:00,59.7,56.5,29.80,NW,307,0.0,0.0,89,0.00,,CLR,0.00,VWS V14.01,2013-06-02 07:03:00,
2013-06-02 02:04:00,59.7,56.5,29.80,NW,307,0.0,0.0,89,0.00,,CLR,0.00,VWS V14.01,2013-06-02 07:04:00,
2013-06-02 02:07:00,59.7,56.5,29.80,NW,307,0.0,0.0,89,0.00,,CLR,0.00,VWS V14.01,2013-06-02 07:07:00,
2013-06-02 02:08:00,59.5,56.3,29.80,NW,307,0.0,0.0,89,0.00,,CLR,0.00,VWS V14.01,2013-06-02 07:08:00,
2013-06-02 02:09:00,59.5,56.3,29.80,NW,307,0.0,0.0,89,0.00,,CLR,0.00,VWS V14.01,2013-06-02 07:09:00,
2013-06-02 02:12:00,59.4,56.2,29.80,NW,307,0.0,0.0,89,0.00,,CLR,0.00,VWS V14.01,2013-06-02 07:12:00,
2013-06-02 02:13:00,59.4,56.2,29.80,NW,307,0.0,0.0,89,0.00,,CLR,0.00,VWS V14.01,2013-06-02 07:13:00,
2013-06-02 02:14:00,59.4,56.2,29.80,NW,307,0.0,0.0,89,0.00,,CLR,0.00,VWS V14.01,2013-06-02 07:14:00,
2013-06-02 02:17:00,59.2,56.3,29.80,NW,307,0.0,0.0,90,0.00,,CLR,0.00,VWS V14.01,2013-06-02 07:17:00,
2013-06-02 02:18:00,59.2,56.3,29.80,NW,307,0.0,0.0,90,0.00,,CLR,0.00,VWS V14.01,2013-06-02 07:18:00,
2013-06-02 02:19:00,59.2,56.3,29.80,NW,307,0.0,0.0,90,0.00,,CLR,0.00,VWS V14.01,2013-06-02 07:19:00,
2013-06-02 02:20:00,59.2,56.3,29.80,NW,307,0.0,0.0,90,0.00,,CLR,0.00,VWS V14.01,2013-06-02 07:20:00,
2013-06-02 02:22:00,59.1,56.2,29.80,NW,307,0.0,0.0,90,0.00,,CLR,0.00,VWS V14.01,2013-06-02 07:22:00,
2013-06-02 02:24:00,59.1,56.2,29.80,NW,307,0.0,0.0,90,0.00,,CLR,0.00,VWS V14.01,2013-06-02 07:24:00,
2013-06-02 02:25:00,59.1,56.2,29.80,NW,307,0.0,0.0,90,0.00,,CLR,0.00,VWS V14.01,2013-06-02 07:25:00,
2013-06-02 02:27:00,58.9,56.0,29.80,NW,307,0.0,0.0,90,0.00,,CLR,0.00,VWS V14.01,2013-06-02 07:27:00,
2013-06-02 02:29:00,58.9,56.0,29.80,NW,307,0.0,0.0,90,0.00,,CLR,0.00,VWS V14.01,2013-06-02 07:29:00,
2013-06-02 02:30:00,58.9,56.0,29.80,NW,307,0.0,0.0,90,0.00,,CLR,0.00,VWS V14.01,2013-06-02 07:30:00,
2013-06-02 02:32:00,58.8,55.9,29.80,NW,307,0.0,0.0,90,0.00,,CLR,0.00,VWS V14.01,2013-06-02 07:32:00,
2013-06-02 02:34:00,58.8,55.9,29.80,NW,307,0.0,0.0,90,0.00,,CLR,0.00,VWS V14.01,2013-06-02 07:34:00,
2013-06-02 02:35:00,58.8,55.9,29.80,NW,307,0.0,0.0,90,0.00,,CLR,0.00,VWS V14.01,2013-06-02 07:35:00,
2013-06-02 02:37:00,58.6,55.7,29.80,NW,307,0.0,0.0,90,0.00,,CLR,0.00,VWS V14.01,2013-06-02 07:37:00,
2013-06-02 02:39:00,58.6,55.7,29.80,NW,307,0.0,0.0,90,0.00,,CLR,0.00,VWS V14.01,2013-06-02 07:39:00,
2013-06-02 02:40:00,58.6,56.0,29.80,NW,307,0.0,0.0,91,0.00,,CLR,0.00,VWS V14.01,2013-06-02 07:40:00,
2013-06-02 02:42:00,58.6,56.0,29.80,NW,307,0.0,0.0,91,0.00,,CLR,0.00,VWS V14.01,2013-06-02 07:42:00,
2013-06-02 02:44:00,58.5,55.9,29.80,NW,307,0.0,0.0,91,0.00,,CLR,0.00,VWS V14.01,2013-06-02 07:44:00,
2013-06-02 02:45:00,58.5,55.9,29.80,NW,307,0.0,0.0,91,0.00,,CLR,0.00,VWS V14.01,2013-06-02 07:45:00,
2013-06-02 02:48:00,58.5,55.9,29.80,NW,307,0.0,0.0,91,0.00,,CLR,0.00,VWS V14.01,2013-06-02 07:48:00,
2013-06-02 02:49:00,58.5,55.9,29.80,NW,307,0.0,0.0,91,0.00,,CLR,0.00,VWS V14.01,2013-06-02 07:49:00,
2013-06-02 02:50:00,58.3,55.7,29.80,NW,307,0.0,0.0,91,0.00,,CLR,0.00,VWS V14.01,2013-06-02 07:50:00,
2013-06-02 02:53:00,58.3,55.7,29.80,NW,307,0.0,0.0,91,0.00,,CLR,0.00,VWS V14.01,2013-06-02 07:53:00,
2013-06-02 02:54:00,58.5,55.9,29.80,NW,307,0.0,0.0,91,0.00,,CLR,0.00,VWS V14.01,2013-06-02 07:54:00,
2013-06-02 02:55:00,58.5,55.9,29.80,NW,307,0.0,0.0,91,0.00,,CLR,0.00,VWS V14.01,2013-06-02 07:55:00,
2013-06-02 02:56:00,58.5,55.9,29.80,NW,307,0.0,0.0,91,0.00,,CLR,0.00,VWS V14.01,2013-06-02 07:56:00,
2013-06-02 02:58:00,58.5,55.9,29.80,NW,307,0.0,0.0,91,0.00,,CLR,0.00,VWS V14.01,2013-06-02 07:58:00,
2013-06-02 03:00:00,58.5,55.9,29.80,NW,307,0.0,0.0,91,0.00,,CLR,0.00,VWS V14.01,2013-06-02 08:00:00,
2013-06-02 03:01:00,58.5,55.9,29.80,NW,307,0.0,0.0,91,0.00,,CLR,0.00,VWS V14.01,2013-06-02 08:01:00,
2013-06-02 03:03:00,58.6,56.0,29.80,NW,307,0.0,0.0,91,0.00,,CLR,0.00,VWS V14.01,2013-06-02 08:03:00,
2013-06-02 03:05:00,58.6,56.0,29.80,NW,307,0.0,0.0,91,0.00,,CLR,0.00,VWS V14.01,2013-06-02 08:05:00,
2013-06-02 03:06:00,58.5,55.9,29.80,NW,307,0.0,0.0,91,0.00,,CLR,0.00,VWS V14.01,2013-06-02 08:06:00,
2013-06-02 03:08:00,58.5,55.9,29.80,NW,307,0.0,0.0,91,0.00,,CLR,0.00,VWS V14.01,2013-06-02 08:08:00,
2013-06-02 03:10:00,58.5,56.2,29.80,NW,307,0.0,0.0,92,0.00,,CLR,0.00,VWS V14.01,2013-06-02 08:10:00,
2013-06-02 03:11:00,58.5,56.2,29.80,NW,307,0.0,0.0,92,0.00,,CLR,0.00,VWS V14.01,2013-06-02 08:11:00,
2013-06-02 03:13:00,58.5,56.2,29.80,NW,307,0.0,0.0,92,0.00,,CLR,0.00,VWS V14.01,2013-06-02 08:13:00,
2013-06-02 03:15:00,58.5,56.2,29.80,NW,307,0.0,0.0,92,0.00,,CLR,0.00,VWS V14.01,2013-06-02 08:15:00,
2013-06-02 03:16:00,58.5,56.2,29.80,NW,307,0.0,0.0,92,0.00,,CLR,0.00,VWS V14.01,2013-06-02 08:16:00,
2013-06-02 03:17:00,58.5,56.2,29.80,NW,307,0.0,0.0,92,0.00,,CLR,0.00,VWS V14.01,2013-06-02 08:17:00,
2013-06-02 03:18:00,58.5,56.2,29.80,NW,307,0.0,0.0,92,0.00,,CLR,0.00,VWS V14.01,2013-06-02 08:18:00,
2013-06-02 03:20:00,58.5,56.2,29.80,NW,307,0.0,0.0,92,0.00,,CLR,0.00,VWS V14.01,2013-06-02 08:20:00,
2013-06-02 03:21:00,58.5,56.2,29.80,NW,307,0.0,0.0,92,0.00,,CLR,0.00,VWS V14.01,2013-06-02 08:21:00,
2013-06-02 03:22:00,58.5,56.2,29.80,NW,307,0.0,0.0,92,0.00,,CLR,0.00,VWS V14.01,2013-06-02 08:22:00,
2013-06-02 03:24:00,58.5,56.2,29.80,NW,307,0.0,0.0,92,0.00,,CLR,0.00,VWS V14.01,2013-06-02 08:24:00,
2013-06-02 03:25:00,58.5,56.2,29.80,NW,307,0.0,0.0,92,0.00,,CLR,0.00,VWS V14.01,2013-06-02 08:25:00,
2013-06-02 03:26:00,58.5,56.2,29.80,NW,307,0.0,0.0,92,0.00,,CLR,0.00,VWS V14.01,2013-06-02 08:26:00,
2013-06-02 03:27:00,58.5,56.2,29.80,NW,307,0.0,0.0,92,0.00,,CLR,0.00,VWS V14.01,2013-06-02 08:27:00,
2013-06-02 03:29:00,58.5,56.2,29.80,NW,307,0.0,0.0,92,0.00,,CLR,0.00,VWS V14.01,2013-06-02 08:29:00,
2013-06-02 03:30:00,58.5,56.2,29.81,NW,307,0.0,0.0,92,0.00,,,0.00,VWS V14.01,2013-06-02 08:30:00,
2013-06-02 03:31:00,58.5,56.2,29.81,NW,307,0.0,0.0,92,0.00,,CLR,0.00,VWS V14.01,2013-06-02 08:31:00,
2013-06-02 03:32:00,58.5,56.2,29.81,NW,307,0.0,0.0,92,0.00,,CLR,0.00,VWS V14.01,2013-06-02 08:32:00,
2013-06-02 03:34:00,58.5,56.2,29.81,NW,307,0.0,0.0,92,0.00,,CLR,0.00,VWS V14.01,2013-06-02 08:34:00,
2013-06-02 03:36:00,58.5,56.2,29.81,NW,307,0.0,0.0,92,0.00,,CLR,0.00,VWS V14.01,2013-06-02 08:36:00,
2013-06-02 03:37:00,58.5,56.2,29.81,NW,307,0.0,0.0,92,0.00,,CLR,0.00,VWS V14.01,2013-06-02 08:37:00,
2013-06-02 03:39:00,58.5,56.2,29.81,NW,307,0.0,0.0,92,0.00,,CLR,0.00,VWS V14.01,2013-06-02 08:39:00,
2013-06-02 03:41:00,58.5,56.2,29.81,NW,307,0.0,0.0,92,0.00,,CLR,0.00,VWS V14.01,2013-06-02 08:41:00,
2013-06-02 03:42:00,58.3,56.0,29.81,NW,307,0.0,0.0,92,0.00,,CLR,0.00,VWS V14.01,2013-06-02 08:42:00,
2013-06-02 03:44:00,58.3,56.0,29.81,NW,307,0.0,0.0,92,0.00,,CLR,0.00,VWS V14.01,2013-06-02 08:44:00,
2013-06-02 03:46:00,58.3,56.0,29.81,NW,307,0.0,0.0,92,0.00,,CLR,0.00,VWS V14.01,2013-06-02 08:46:00,
2013-06-02 03:47:00,58.3,56.0,29.81,NW,307,0.0,0.0,92,0.00,,CLR,0.00,VWS V14.01,2013-06-02 08:47:00,
2013-06-02 03:49:00,58.3,56.0,29.81,NW,307,0.0,0.0,92,0.00,,CLR,0.00,VWS V14.01,2013-06-02 08:49:00,
2013-06-02 03:51:00,58.3,56.0,29.81,NW,312,0.0,0.0,92,0.00,,CLR,0.00,VWS V14.01,2013-06-02 08:51:00,
2013-06-02 03:52:00,58.3,56.0,29.81,NW,312,0.0,0.0,92,0.00,,CLR,0.00,VWS V14.01,2013-06-02 08:52:00,
2013-06-02 03:53:00,58.3,56.0,29.81,NW,312,0.0,0.0,92,0.00,,CLR,0.00,VWS V14.01,2013-06-02 08:53:00,
2013-06-02 03:54:00,58.3,56.0,29.81,NW,312,0.0,0.0,92,0.00,,CLR,0.00,VWS V14.01,2013-06-02 08:54:00,
2013-06-02 03:56:00,58.3,56.0,29.81,NW,312,0.0,0.0,92,0.00,,CLR,0.00,VWS V14.01,2013-06-02 08:56:00,
2013-06-02 03:57:00,58.3,56.0,29.81,NW,312,0.0,0.0,92,0.00,,CLR,0.00,VWS V14.01,2013-06-02 08:57:00,
2013-06-02 03:58:00,58.3,56.0,29.81,NW,312,0.0,0.0,92,0.00,,CLR,0.00,VWS V14.01,2013-06-02 08:58:00,
2013-06-02 04:00:00,58.3,56.0,29.81,NW,310,0.0,0.0,92,0.00,,CLR,0.00,VWS V14.01,2013-06-02 09:00:00,
2013-06-02 04:01:00,58.3,56.0,29.81,NW,310,0.0,0.0,92,0.00,,CLR,0.00,VWS V14.01,2013-06-02 09:01:00,
2013-06-02 04:02:00,58.3,56.0,29.81,NW,310,0.0,0.0,92,0.00,,CLR,0.00,VWS V14.01,2013-06-02 09:02:00,
2013-06-02 04:03:00,58.3,56.0,29.81,NW,310,0.0,0.0,92,0.00,,CLR,0.00,VWS V14.01,2013-06-02 09:03:00,
2013-06-02 04:05:00,58.3,56.0,29.81,NW,310,0.0,0.0,92,0.00,,CLR,0.00,VWS V14.01,2013-06-02 09:05:00,
2013-06-02 04:06:00,58.3,56.0,29.81,NW,310,0.0,0.0,92,0.00,,CLR,0.00,VWS V14.01,2013-06-02 09:06:00,
2013-06-02 04:07:00,58.3,56.0,29.81,NW,310,0.0,0.0,92,0.00,,CLR,0.00,VWS V14.01,2013-06-02 09:07:00,
2013-06-02 04:08:00,58.3,56.0,29.81,NW,311,0.0,0.0,92,0.00,,CLR,0.00,VWS V14.01,2013-06-02 09:08:00,
2013-06-02 04:10:00,58.3,56.0,29.81,NW,311,0.0,0.0,92,0.00,,CLR,0.00,VWS V14.01,2013-06-02 09:10:00,
2013-06-02 04:11:00,58.3,56.0,29.81,NW,311,0.0,0.0,92,0.00,,CLR,0.00,VWS V14.01,2013-06-02 09:11:00,
2013-06-02 04:12:00,58.2,55.9,29.81,NW,311,0.0,0.0,92,0.00,,CLR,0.00,VWS V14.01,2013-06-02 09:12:00,
2013-06-02 04:13:00,58.2,55.9,29.81,NW,311,0.0,0.0,92,0.00,,CLR,0.00,VWS V14.01,2013-06-02 09:13:00,
2013-06-02 04:15:00,58.2,55.9,29.81,NW,311,0.0,0.0,92,0.00,,CLR,0.00,VWS V14.01,2013-06-02 09:15:00,
2013-06-02 04:16:00,58.2,55.9,29.81,NW,311,0.0,0.0,92,0.00,,CLR,0.00,VWS V14.01,2013-06-02 09:16:00,
2013-06-02 04:17:00,58.2,55.9,29.81,WNW,302,0.0,0.0,92,0.01,,CLR,0.01,VWS V14.01,2013-06-02 09:17:00,
2013-06-02 04:18:00,58.2,55.9,29.81,WNW,302,0.0,0.0,92,0.01,,CLR,0.01,VWS V14.01,2013-06-02 09:18:00,
2013-06-02 04:20:00,58.2,55.9,29.81,NW,305,0.0,0.0,92,0.01,,CLR,0.01,VWS V14.01,2013-06-02 09:20:00,
2013-06-02 04:21:00,58.2,55.9,29.81,NW,305,0.0,0.0,92,0.01,,CLR,0.01,VWS V14.01,2013-06-02 09:21:00,
2013-06-02 04:22:00,58.2,55.9,29.81,NW,305,0.0,0.0,92,0.01,,CLR,0.01,VWS V14.01,2013-06-02 09:22:00,
2013-06-02 04:23:00,58.2,55.9,29.81,NW,305,0.0,0.0,92,0.01,,CLR,0.01,VWS V14.01,2013-06-02 09:23:00,
2013-06-02 04:26:00,58.3,56.0,29.81,NW,305,0.0,0.0,92,0.01,,CLR,0.01,VWS V14.01,2013-06-02 09:26:00,
2013-06-02 04:27:00,58.3,56.0,29.81,NW,305,0.0,0.0,92,0.01,,CLR,0.01,VWS V14.01,2013-06-02 09:27:00,
2013-06-02 04:28:00,58.3,56.0,29.81,NW,305,0.0,0.0,92,0.01,,CLR,0.01,VWS V14.01,2013-06-02 09:28:00,
2013-06-02 04:29:00,58.3,56.0,29.81,NW,305,0.0,0.0,92,0.01,,CLR,0.01,VWS V14.01,2013-06-02 09:29:00,
2013-06-02 04:30:00,58.3,56.0,29.82,NW,305,0.0,0.0,92,0.01,,,0.01,VWS V14.01,2013-06-02 09:30:00,
2013-06-02 04:31:00,58.3,56.0,29.82,NW,305,0.0,0.0,92,0.01,,CLR,0.01,VWS V14.01,2013-06-02 09:31:00,
2013-06-02 04:32:00,58.5,55.9,29.82,NW,305,0.0,0.0,91,0.01,,CLR,0.01,VWS V14.01,2013-06-02 09:32:00,
2013-06-02 04:33:00,58.5,56.2,29.82,NW,305,0.0,0.0,92,0.01,,CLR,0.01,VWS V14.01,2013-06-02 09:33:00,
2013-06-02 04:34:00,58.5,55.9,29.82,NW,305,0.0,0.0,91,0.01,,CLR,0.01,VWS V14.01,2013-06-02 09:34:00,
2013-06-02 04:36:00,58.6,56.0,29.82,NW,305,0.0,0.0,91,0.01,,CLR,0.01,VWS V14.01,2013-06-02 09:36:00,
2013-06-02 04:37:00,58.6,56.0,29.82,NW,305,0.0,0.0,91,0.01,,CLR,0.01,VWS V14.01,2013-06-02 09:37:00,
2013-06-02 04:38:00,58.6,56.0,29.82,NW,305,0.0,0.0,91,0.01,,CLR,0.01,VWS V14.01,2013-06-02 09:38:00,
2013-06-02 04:39:00,58.6,56.0,29.82,NW,305,0.0,0.0,91,0.01,,CLR,0.01,VWS V14.01,2013-06-02 09:39:00,
2013-06-02 04:41:00,58.8,56.2,29.82,NW,305,0.0,0.0,91,0.01,,CLR,0.01,VWS V14.01,2013-06-02 09:41:00,
2013-06-02 04:42:00,58.8,56.2,29.82,NW,305,0.0,0.0,91,0.01,,CLR,0.01,VWS V14.01,2013-06-02 09:42:00,
2013-06-02 04:43:00,58.8,56.2,29.82,NW,305,0.0,0.0,91,0.01,,CLR,0.01,VWS V14.01,2013-06-02 09:43:00,
2013-06-02 04:44:00,58.9,56.3,29.82,NW,305,0.0,0.0,91,0.01,,CLR,0.01,VWS V14.01,2013-06-02 09:44:00,
2013-06-02 04:46:00,58.9,56.3,29.82,NW,305,0.0,0.0,91,0.01,,SCT080,0.01,VWS V14.01,2013-06-02 09:46:00,
2013-06-02 04:47:00,58.9,56.3,29.82,NW,305,0.0,0.0,91,0.01,,SCT080,0.01,VWS V14.01,2013-06-02 09:47:00,
2013-06-02 04:48:00,58.9,56.3,29.82,NW,305,0.0,0.0,91,0.01,,SCT080,0.01,VWS V14.01,2013-06-02 09:48:00,
2013-06-02 04:49:00,59.1,56.5,29.82,NW,305,0.0,0.0,91,0.01,,SCT080,0.01,VWS V14.01,2013-06-02 09:49:00,
2013-06-02 04:51:00,59.1,56.5,29.82,NW,305,0.0,0.0,91,0.01,,SCT080,0.01,VWS V14.01,2013-06-02 09:51:00,
2013-06-02 04:52:00,59.1,56.5,29.82,NW,305,0.0,0.0,91,0.01,,SCT080,0.01,VWS V14.01,2013-06-02 09:52:00,
2013-06-02 04:53:00,59.1,56.5,29.82,NW,305,0.0,0.0,91,0.01,,SCT080,0.01,VWS V14.01,2013-06-02 09:53:00,
2013-06-02 04:54:00,59.2,56.6,29.82,NW,305,0.0,0.0,91,0.01,,SCT080,0.01,VWS V14.01,2013-06-02 09:54:00,
2013-06-02 04:55:00,59.2,56.6,29.82,NW,305,0.0,0.0,91,0.01,,SCT080,0.01,VWS V14.01,2013-06-02 09:55:00,
2013-06-02 04:56:00,59.2,56.6,29.82,NW,305,0.0,0.0,91,0.01,,SCT080,0.01,VWS V14.01,2013-06-02 09:56:00,
2013-06-02 04:57:00,59.2,56.3,29.82,NW,305,0.0,0.0,90,0.01,,SCT080,0.01,VWS V14.01,2013-06-02 09:57:00,
2013-06-02 04:58:00,59.2,56.3,29.82,NW,305,0.0,0.0,90,0.01,,SCT080,0.01,VWS V14.01,2013-06-02 09:58:00,
2013-06-02 05:00:00,59.4,56.5,29.82,NW,305,0.0,0.0,90,0.01,,SCT080,0.01,VWS V14.01,2013-06-02 10:00:00,
2013-06-02 05:01:00,59.4,56.5,29.82,NW,305,0.0,0.0,90,0.01,,SCT080,0.01,VWS V14.01,2013-06-02 10:01:00,
2013-06-02 05:02:00,59.4,56.5,29.82,NW,305,0.0,0.0,90,0.01,,SCT080,0.01,VWS V14.01,2013-06-02 10:02:00,
2013-06-02 05:03:00,59.4,56.5,29.82,NW,305,0.0,0.0,90,0.01,,SCT080,0.01,VWS V14.01,2013-06-02 10:03:00,
2013-06-02 05:05:00,59.4,56.5,29.82,NW,305,0.0,0.0,90,0.01,,SCT080,0.01,VWS V14.01,2013-06-02 10:05:00,
2013-06-02 05:07:00,59.4,56.5,29.82,NW,305,0.0,0.0,90,0.01,,SCT080,0.01,VWS V14.01,2013-06-02 10:07:00,
2013-06-02 05:09:00,59.4,56.5,29.82,NW,305,0.0,0.0,90,0.01,,SCT080,0.01,VWS V14.01,2013-06-02 10:09:00,
2013-06-02 05:10:00,59.5,56.6,29.82,NW,305,0.0,0.0,90,0.01,,SCT080,0.01,VWS V14.01,2013-06-02 10:10:00,
2013-06-02 05:12:00,59.5,56.6,29.82,NW,305,0.0,0.0,90,0.01,,SCT080,0.01,VWS V14.01,2013-06-02 10:12:00,
2013-06-02 05:13:00,59.5,56.6,29.82,NW,305,0.0,0.0,90,0.01,,SCT080,0.01,VWS V14.01,2013-06-02 10:13:00,
2013-06-02 05:14:00,59.5,56.6,29.82,NW,305,0.0,0.0,90,0.01,,SCT080,0.01,VWS V14.01,2013-06-02 10:14:00,
2013-06-02 05:15:00,59.5,56.6,29.83,NW,305,0.0,0.0,90,0.01,,SCT080,0.01,VWS V14.01,2013-06-02 10:15:00,
2013-06-02 05:16:00,59.5,56.6,29.83,NW,305,0.0,0.0,90,0.01,,OVC025,0.01,VWS V14.01,2013-06-02 10:16:00,
2013-06-02 05:17:00,59.5,56.6,29.83,NW,305,0.0,0.0,90,0.01,,OVC025,0.01,VWS V14.01,2013-06-02 10:17:00,
2013-06-02 05:18:00,59.7,56.8,29.83,NW,305,0.0,0.0,90,0.01,,OVC025,0.01,VWS V14.01,2013-06-02 10:18:00,
2013-06-02 05:19:00,59.7,56.8,29.83,NW,305,0.0,0.0,90,0.01,,OVC025,0.01,VWS V14.01,2013-06-02 10:19:00,
2013-06-02 05:20:00,59.7,56.8,29.83,NW,305,0.0,0.0,90,0.01,,OVC025,0.01,VWS V14.01,2013-06-02 10:20:00,
2013-06-02 05:21:00,59.7,56.8,29.83,NW,305,0.0,0.0,90,0.01,,OVC025,0.01,VWS V14.01,2013-06-02 10:21:00,
2013-06-02 05:22:00,59.7,56.8,29.83,NW,305,0.0,0.0,90,0.01,,OVC025,0.01,VWS V14.01,2013-06-02 10:22:00,
2013-06-02 05:23:00,59.7,56.8,29.83,NW,305,0.0,0.0,90,0.01,,OVC025,0.01,VWS V14.01,2013-06-02 10:23:00,
2013-06-02 05:24:00,59.7,56.5,29.83,NW,305,0.0,0.0,89,0.01,,OVC025,0.01,VWS V14.01,2013-06-02 10:24:00,
2013-06-02 05:25:00,59.7,56.5,29.83,NW,305,0.0,0.0,89,0.01,,OVC025,0.01,VWS V14.01,2013-06-02 10:25:00,
2013-06-02 05:26:00,59.7,56.5,29.83,NW,305,0.0,0.0,89,0.01,,OVC025,0.01,VWS V14.01,2013-06-02 10:26:00,
2013-06-02 05:28:00,59.7,56.5,29.83,NW,305,0.0,0.0,89,0.01,,OVC025,0.01,VWS V14.01,2013-06-02 10:28:00,
2013-06-02 05:29:00,59.8,56.6,29.83,NW,305,0.0,0.0,89,0.01,,OVC025,0.01,VWS V14.01,2013-06-02 10:29:00,
2013-06-02 05:30:00,59.8,56.6,29.83,NW,305,0.0,0.0,89,0.01,,OVC025,0.01,VWS V14.01,2013-06-02 10:30:00,
2013-06-02 05:31:00,59.8,56.6,29.83,NW,305,0.0,0.0,89,0.00,,OVC025,0.01,VWS V14.01,2013-06-02 10:31:00,
2013-06-02 05:33:00,59.8,56.6,29.83,NW,305,0.0,0.0,89,0.00,,OVC025,0.01,VWS V14.01,2013-06-02 10:33:00,
2013-06-02 05:34:00,59.8,56.6,29.83,NW,305,0.0,0.0,89,0.00,,OVC025,0.01,VWS V14.01,2013-06-02 10:34:00,
2013-06-02 05:35:00,59.8,56.6,29.83,NW,305,0.0,0.0,89,0.00,,OVC025,0.01,VWS V14.01,2013-06-02 10:35:00,
2013-06-02 05:36:00,59.8,56.6,29.83,NW,305,0.0,0.0,89,0.00,,OVC025,0.01,VWS V14.01,2013-06-02 10:36:00,
2013-06-02 05:38:00,60.0,56.8,29.83,NW,305,0.0,0.0,89,0.00,,OVC025,0.01,VWS V14.01,2013-06-02 10:38:00,
2013-06-02 05:40:00,60.0,56.8,29.83,NW,305,0.0,0.0,89,0.00,,OVC025,0.01,VWS V14.01,2013-06-02 10:40:00,
2013-06-02 05:41:00,60.0,56.8,29.83,NW,305,0.0,0.0,89,0.00,,OVC025,0.01,VWS V14.01,2013-06-02 10:41:00,
2013-06-02 05:44:00,60.0,56.8,29.83,NW,305,0.0,0.0,89,0.00,,OVC025,0.01,VWS V14.01,2013-06-02 10:44:00,
2013-06-02 05:45:00,60.0,56.8,29.83,NW,305,0.0,0.0,89,0.00,,OVC025,0.01,VWS V14.01,2013-06-02 10:45:00,
2013-06-02 05:46:00,60.0,56.8,29.83,NW,305,0.0,0.0,89,0.00,,OVC025,0.01,VWS V14.01,2013-06-02 10:46:00,
2013-06-02 05:47:00,60.0,56.8,29.83,NW,305,0.0,0.0,89,0.00,,OVC025,0.01,VWS V14.01,2013-06-02 10:47:00,
2013-06-02 05:49:00,60.0,56.8,29.83,NW,305,0.0,0.0,89,0.00,,OVC025,0.01,VWS V14.01,2013-06-02 10:49:00,
2013-06-02 05:50:00,60.0,56.8,29.83,NW,305,0.0,0.0,89,0.00,,OVC025,0.01,VWS V14.01,2013-06-02 10:50:00,
2013-06-02 05:51:00,60.0,56.8,29.83,NW,305,0.0,0.0,89,0.00,,OVC025,0.01,VWS V14.01,2013-06-02 10:51:00,
2013-06-02 05:52:00,60.1,56.8,29.83,NW,305,0.0,0.0,89,0.00,,OVC025,0.01,VWS V14.01,2013-06-02 10:52:00,
2013-06-02 05:54:00,60.1,56.8,29.83,NW,305,0.0,0.0,89,0.00,,OVC025,0.01,VWS V14.01,2013-06-02 10:54:00,
2013-06-02 05:56:00,60.1,57.2,29.83,NW,305,0.0,0.0,90,0.00,,OVC025,0.01,VWS V14.01,2013-06-02 10:56:00,
2013-06-02 05:58:00,60.1,56.8,29.83,NW,305,0.0,0.0,89,0.00,,OVC025,0.01,VWS V14.01,2013-06-02 10:58:00,
2013-06-02 05:59:00,60.1,56.8,29.83,NW,305,0.0,0.0,89,0.00,,OVC025,0.01,VWS V14.01,2013-06-02 10:59:00,
2013-06-02 06:00:00,60.1,57.2,29.85,NW,305,0.0,0.0,90,0.00,,OVC025,0.01,VWS V14.01,2013-06-02 11:00:00,
2013-06-02 06:01:00,60.1,57.2,29.85,NW,305,0.0,0.0,90,0.00,,OVC025,0.01,VWS V14.01,2013-06-02 11:01:00,
2013-06-02 06:03:00,60.3,57.4,29.85,NW,305,0.0,0.0,90,0.00,,OVC014,0.01,VWS V14.01,2013-06-02 11:03:00,
2013-06-02 06:04:00,60.3,57.4,29.85,WSW,250,0.0,1.0,90,0.00,,OVC014,0.01,VWS V14.01,2013-06-02 11:04:00,
2013-06-02 06:05:00,60.3,57.4,29.85,WSW,250,0.0,1.0,90,0.00,,OVC014,0.01,VWS V14.01,2013-06-02 11:05:00,
2013-06-02 06:06:00,60.3,57.4,29.85,WSW,250,0.0,1.0,90,0.00,,OVC014,0.01,VWS V14.01,2013-06-02 11:06:00,
2013-06-02 06:08:00,60.3,57.0,29.85,SW,218,0.0,1.0,89,0.00,,OVC014,0.01,VWS V14.01,2013-06-02 11:08:00,
2013-06-02 06:09:00,60.3,57.4,29.85,SW,218,0.0,1.0,90,0.00,,OVC014,0.01,VWS V14.01,2013-06-02 11:09:00,
2013-06-02 06:10:00,60.3,57.0,29.85,SW,218,0.0,1.0,89,0.00,,OVC014,0.01,VWS V14.01,2013-06-02 11:10:00,
2013-06-02 06:11:00,60.3,57.4,29.85,SW,218,0.0,1.0,90,0.00,,OVC014,0.01,VWS V14.01,2013-06-02 11:11:00,
2013-06-02 06:13:00,60.3,57.4,29.85,SW,218,0.0,1.0,90,0.00,,OVC014,0.01,VWS V14.01,2013-06-02 11:13:00,
2013-06-02 06:14:00,60.3,57.0,29.85,SW,218,0.0,1.0,89,0.00,,OVC014,0.01,VWS V14.01,2013-06-02 11:14:00,
2013-06-02 06:15:00,60.3,57.0,29.85,SW,218,0.0,1.0,89,0.00,,OVC014,0.01,VWS V14.01,2013-06-02 11:15:00,
2013-06-02 06:16:00,60.3,57.0,29.85,SW,218,0.0,1.0,89,0.00,,OVC014,0.01,VWS V14.01,2013-06-02 11:16:00,
2013-06-02 06:17:00,60.3,57.0,29.85,SW,218,0.0,1.0,89,0.00,,OVC014,0.01,VWS V14.01,2013-06-02 11:17:00,
2013-06-02 06:18:00,60.4,57.2,29.85,SW,218,0.0,1.0,89,0.00,,OVC014,0.01,VWS V14.01,2013-06-02 11:18:00,
2013-06-02 06:19:00,60.4,57.2,29.85,SW,218,0.0,1.0,89,0.00,,OVC014,0.01,VWS V14.01,2013-06-02 11:19:00,
2013-06-02 06:20:00,60.4,57.2,29.85,SW,218,0.0,1.0,89,0.00,,OVC014,0.01,VWS V14.01,2013-06-02 11:20:00,
2013-06-02 06:22:00,60.4,57.2,29.85,SW,218,0.0,1.0,89,0.00,,OVC014,0.01,VWS V14.01,2013-06-02 11:22:00,
2013-06-02 06:24:00,60.4,57.2,29.85,SW,218,0.0,1.0,89,0.00,,OVC014,0.01,VWS V14.01,2013-06-02 11:24:00,
2013-06-02 06:25:00,60.4,57.5,29.85,SW,218,0.0,1.0,90,0.00,,OVC014,0.01,VWS V14.01,2013-06-02 11:25:00,
2013-06-02 06:27:00,60.4,57.5,29.85,SW,218,0.0,1.0,90,0.00,,OVC014,0.01,VWS V14.01,2013-06-02 11:27:00,
2013-06-02 06:29:00,60.4,57.5,29.85,SW,218,0.0,1.0,90,0.00,,OVC014,0.01,VWS V14.01,2013-06-02 11:29:00,
2013-06-02 06:30:00,60.4,57.5,29.86,SW,218,0.0,1.0,90,0.00,,OVC014,0.01,VWS V14.01,2013-06-02 11:30:00,
2013-06-02 06:32:00,60.4,57.5,29.86,SW,218,0.0,0.0,90,0.00,,OVC014,0.01,VWS V14.01,2013-06-02 11:32:00,
2013-06-02 06:34:00,60.3,57.4,29.86,SW,218,0.0,0.0,90,0.00,,OVC014,0.01,VWS V14.01,2013-06-02 11:34:00,
2013-06-02 06:35:00,60.3,57.4,29.86,SW,218,0.0,0.0,90,0.00,,OVC014,0.01,VWS V14.01,2013-06-02 11:35:00,
2013-06-02 06:37:00,60.3,57.4,29.86,SW,218,0.0,0.0,90,0.00,,OVC014,0.01,VWS V14.01,2013-06-02 11:37:00,
2013-06-02 06:39:00,60.3,57.4,29.86,SW,218,0.0,0.0,90,0.00,,OVC014,0.01,VWS V14.01,2013-06-02 11:39:00,
2013-06-02 06:40:00,60.3,57.4,29.86,SW,218,0.0,0.0,90,0.00,,OVC014,0.01,VWS V14.01,2013-06-02 11:40:00,
2013-06-02 06:43:00,60.3,57.4,29.86,SW,218,0.0,0.0,90,0.00,,OVC014,0.01,VWS V14.01,2013-06-02 11:43:00,
2013-06-02 06:44:00,60.3,57.4,29.86,SW,218,0.0,0.0,90,0.00,,OVC014,0.01,VWS V14.01,2013-06-02 11:44:00,
2013-06-02 06:45:00,60.3,57.4,29.87,SW,218,0.0,0.0,90,0.00,,OVC014,0.01,VWS V14.01,2013-06-02 11:45:00,
2013-06-02 06:48:00,60.3,57.4,29.87,SW,218,0.0,0.0,90,0.00,,OVC014,0.01,VWS V14.01,2013-06-02 11:48:00,
2013-06-02 06:49:00,60.3,57.7,29.87,SW,218,0.0,0.0,91,0.00,,OVC014,0.01,VWS V14.01,2013-06-02 11:49:00,
2013-06-02 06:50:00,60.3,57.7,29.87,SW,218,0.0,0.0,91,0.00,,OVC014,0.01,VWS V14.01,2013-06-02 11:50:00,
2013-06-02 06:51:00,60.3,57.7,29.87,SW,218,0.0,0.0,91,0.00,,OVC014,0.01,VWS V14.01,2013-06-02 11:51:00,
2013-06-02 06:53:00,60.3,57.7,29.87,SW,218,0.0,0.0,91,0.00,,OVC014,0.01,VWS V14.01,2013-06-02 11:53:00,
2013-06-02 06:54:00,60.3,57.7,29.87,SW,218,0.0,0.0,91,0.00,,OVC014,0.01,VWS V14.01,2013-06-02 11:54:00,
2013-06-02 06:55:00,60.3,57.7,29.87,SW,218,0.0,0.0,91,0.00,,OVC014,0.01,VWS V14.01,2013-06-02 11:55:00,
2013-06-02 06:56:00,60.3,57.7,29.87,SW,218,0.0,0.0,91,0.00,,OVC014,0.01,VWS V14.01,2013-06-02 11:56:00,
2013-06-02 06:58:00,60.3,57.7,29.87,SW,218,0.0,0.0,91,0.00,,OVC014,0.01,VWS V14.01,2013-06-02 11:58:00,
2013-06-02 06:59:00,60.3,57.7,29.87,SW,218,0.0,0.0,91,0.00,,OVC014,0.01,VWS V14.01,2013-06-02 11:59:00,
2013-06-02 07:00:00,60.3,57.7,29.86,SW,218,0.0,0.0,91,0.00,,OVC014,0.01,VWS V14.01,2013-06-02 12:00:00,
2013-06-02 07:01:00,60.3,57.7,29.86,SW,218,0.0,0.0,91,0.00,,OVC014,0.01,VWS V14.01,2013-06-02 12:01:00,
2013-06-02 07:03:00,60.3,57.7,29.86,SW,218,0.0,0.0,91,0.00,,OVC014,0.01,VWS V14.01,2013-06-02 12:03:00,
2013-06-02 07:04:00,60.3,57.7,29.86,SW,218,0.0,0.0,91,0.00,,OVC014,0.01,VWS V14.01,2013-06-02 12:04:00,
2013-06-02 07:05:00,60.3,57.7,29.86,SW,218,0.0,0.0,91,0.00,,OVC014,0.01,VWS V14.01,2013-06-02 12:05:00,
2013-06-02 07:07:00,60.3,57.7,29.86,SW,218,0.0,0.0,91,0.00,,OVC014,0.01,VWS V14.01,2013-06-02 12:07:00,
2013-06-02 07:08:00,60.3,57.7,29.86,SW,218,0.0,0.0,91,0.00,,OVC014,0.01,VWS V14.01,2013-06-02 12:08:00,
2013-06-02 07:09:00,60.3,57.7,29.86,SW,218,0.0,0.0,91,0.00,,OVC014,0.01,VWS V14.01,2013-06-02 12:09:00,
2013-06-02 07:10:00,60.3,57.7,29.86,SW,218,0.0,0.0,91,0.00,,OVC014,0.01,VWS V14.01,2013-06-02 12:10:00,
2013-06-02 07:12:00,60.3,57.7,29.86,SW,218,0.0,0.0,91,0.00,,OVC014,0.01,VWS V14.01,2013-06-02 12:12:00,
2013-06-02 07:13:00,60.3,57.7,29.86,SW,218,0.0,0.0,91,0.00,,OVC014,0.01,VWS V14.01,2013-06-02 12:13:00,
2013-06-02 07:14:00,60.3,57.7,29.86,SW,218,0.0,0.0,91,0.00,,OVC014,0.01,VWS V14.01,2013-06-02 12:14:00,
2013-06-02 07:15:00,60.3,58.0,29.86,SW,218,0.0,0.0,92,0.00,,OVC014,0.01,VWS V14.01,2013-06-02 12:15:00,
2013-06-02 07:17:00,60.3,58.0,29.86,SW,218,0.0,0.0,92,0.00,,OVC014,0.01,VWS V14.01,2013-06-02 12:17:00,
2013-06-02 07:18:00,60.3,58.0,29.86,SW,218,0.0,0.0,92,0.00,,OVC014,0.01,VWS V14.01,2013-06-02 12:18:00,
2013-06-02 07:19:00,60.3,58.0,29.86,SW,218,0.0,0.0,92,0.00,,OVC014,0.01,VWS V14.01,2013-06-02 12:19:00,
2013-06-02 07:20:00,60.3,58.0,29.86,SW,218,0.0,0.0,92,0.00,,OVC014,0.01,VWS V14.01,2013-06-02 12:20:00,
2013-06-02 07:22:00,60.4,58.1,29.86,SW,218,0.0,0.0,92,0.00,,OVC014,0.01,VWS V14.01,2013-06-02 12:22:00,
2013-06-02 07:23:00,60.4,58.1,29.86,SW,218,0.0,0.0,92,0.00,,OVC014,0.01,VWS V14.01,2013-06-02 12:23:00,
2013-06-02 07:24:00,60.4,58.1,29.86,SW,218,0.0,0.0,92,0.00,,OVC014,0.01,VWS V14.01,2013-06-02 12:24:00,
2013-06-02 07:25:00,60.4,58.1,29.86,SW,218,0.0,0.0,92,0.00,,OVC014,0.01,VWS V14.01,2013-06-02 12:25:00,
2013-06-02 07:27:00,60.4,58.1,29.86,SW,218,0.0,0.0,92,0.00,,OVC014,0.01,VWS V14.01,2013-06-02 12:27:00,
2013-06-02 07:29:00,60.4,58.1,29.86,SW,218,0.0,0.0,92,0.00,,OVC014,0.01,VWS V14.01,2013-06-02 12:29:00,
2013-06-02 07:30:00,60.4,58.1,29.87,SW,218,0.0,0.0,92,0.00,,OVC014,0.01,VWS V14.01,2013-06-02 12:30:00,
2013-06-02 07:32:00,60.4,58.1,29.87,SW,218,0.0,0.0,92,0.00,,OVC014,0.01,VWS V14.01,2013-06-02 12:32:00,
2013-06-02 07:34:00,60.4,58.1,29.87,SW,218,0.0,0.0,92,0.00,,OVC014,0.01,VWS V14.01,2013-06-02 12:34:00,
2013-06-02 07:35:00,60.4,58.1,29.87,SW,218,0.0,0.0,92,0.00,,OVC014,0.01,VWS V14.01,2013-06-02 12:35:00,
2013-06-02 07:37:00,60.4,58.1,29.87,SW,218,0.0,0.0,92,0.00,,OVC014,0.01,VWS V14.01,2013-06-02 12:37:00,
2013-06-02 07:38:00,60.4,58.1,29.87,SW,218,0.0,0.0,92,0.00,,OVC014,0.01,VWS V14.01,2013-06-02 12:38:00,
2013-06-02 07:39:00,60.4,58.1,29.87,SW,218,0.0,0.0,92,0.00,,OVC014,0.01,VWS V14.01,2013-06-02 12:39:00,
2013-06-02 07:40:00,60.4,58.1,29.87,SW,218,0.0,0.0,92,0.00,,OVC014,0.01,VWS V14.01,2013-06-02 12:40:00,
2013-06-02 07:42:00,60.6,58.3,29.87,SW,218,0.0,0.0,92,0.00,,OVC014,0.01,VWS V14.01,2013-06-02 12:42:00,
2013-06-02 07:43:00,60.6,58.3,29.87,SW,218,0.0,0.0,92,0.00,,OVC014,0.01,VWS V14.01,2013-06-02 12:43:00,
2013-06-02 07:44:00,60.6,58.3,29.87,SW,218,0.0,0.0,92,0.00,,OVC014,0.01,VWS V14.01,2013-06-02 12:44:00,
2013-06-02 07:45:00,60.6,58.3,29.87,SW,218,0.0,0.0,92,0.00,,OVC014,0.01,VWS V14.01,2013-06-02 12:45:00,
2013-06-02 07:47:00,60.6,58.3,29.87,SW,218,0.0,0.0,92,0.00,,OVC014,0.01,VWS V14.01,2013-06-02 12:47:00,
2013-06-02 07:48:00,60.6,58.3,29.87,SW,218,0.0,0.0,92,0.00,,OVC014,0.01,VWS V14.01,2013-06-02 12:48:00,
2013-06-02 07:49:00,60.6,58.3,29.87,SW,218,0.0,0.0,92,0.00,,OVC014,0.01,VWS V14.01,2013-06-02 12:49:00,
2013-06-02 07:50:00,60.8,58.5,29.87,SW,218,0.0,0.0,92,0.00,,OVC014,0.01,VWS V14.01,2013-06-02 12:50:00,
2013-06-02 07:51:00,60.8,58.5,29.87,SW,218,0.0,0.0,92,0.00,,OVC014,0.01,VWS V14.01,2013-06-02 12:51:00,
2013-06-02 07:52:00,60.8,58.5,29.87,SW,218,0.0,0.0,92,0.00,,OVC014,0.01,VWS V14.01,2013-06-02 12:52:00,
2013-06-02 07:53:00,60.8,58.5,29.87,SW,218,0.0,0.0,92,0.00,,OVC014,0.01,VWS V14.01,2013-06-02 12:53:00,
2013-06-02 07:55:00,60.9,58.6,29.87,SW,218,0.0,0.0,92,0.00,,OVC014,0.01,VWS V14.01,2013-06-02 12:55:00,
2013-06-02 07:56:00,60.9,58.6,29.87,SW,218,0.0,0.0,92,0.00,,OVC014,0.01,VWS V14.01,2013-06-02 12:56:00,
2013-06-02 07:58:00,60.9,58.6,29.87,SW,218,0.0,0.0,92,0.00,,OVC014,0.01,VWS V14.01,2013-06-02 12:58:00,
2013-06-02 08:00:00,61.1,58.8,29.87,SW,218,0.0,0.0,92,0.00,,OVC014,0.01,VWS V14.01,2013-06-02 13:00:00,
2013-06-02 08:01:00,61.1,58.8,29.87,SW,223,0.0,0.0,92,0.00,,OVC014,0.01,VWS V14.01,2013-06-02 13:01:00,
2013-06-02 08:03:00,61.1,58.8,29.87,SW,223,0.0,0.0,92,0.00,,OVC014,0.01,VWS V14.01,2013-06-02 13:03:00,
2013-06-02 08:05:00,61.2,58.9,29.87,South,171,0.0,0.0,92,0.00,,OVC014,0.01,VWS V14.01,2013-06-02 13:05:00,
2013-06-02 08:06:00,61.2,58.9,29.87,South,171,0.0,0.0,92,0.00,,OVC014,0.01,VWS V14.01,2013-06-02 13:06:00,
2013-06-02 08:08:00,61.2,58.9,29.87,NNW,327,4.0,5.0,92,0.00,,OVC014,0.01,VWS V14.01,2013-06-02 13:08:00,
2013-06-02 08:10:00,61.2,58.6,29.87,NNW,329,0.0,6.0,91,0.00,,OVC014,0.01,VWS V14.01,2013-06-02 13:10:00,
2013-06-02 08:11:00,61.2,58.6,29.87,NNW,329,0.0,6.0,91,0.00,,OVC014,0.01,VWS V14.01,2013-06-02 13:11:00,
2013-06-02 08:13:00,61.2,58.9,29.87,NNW,329,1.0,6.0,92,0.00,,OVC014,0.01,VWS V14.01,2013-06-02 13:13:00,
2013-06-02 08:15:00,61.4,58.8,29.87,NW,315,0.0,6.0,91,0.00,,OVC014,0.01,VWS V14.01,2013-06-02 13:15:00,
2013-06-02 08:16:00,61.4,58.8,29.87,NW,315,0.0,6.0,91,0.00,,OVC014,0.01,VWS V14.01,2013-06-02 13:16:00,
2013-06-02 08:18:00,61.4,58.8,29.87,NW,315,0.0,6.0,91,0.00,,OVC014,0.01,VWS V14.01,2013-06-02 13:18:00,
2013-06-02 08:19:00,61.4,58.8,29.87,NW,315,0.0,6.0,91,0.00,,OVC014,0.01,VWS V14.01,2013-06-02 13:19:00,
2013-06-02 08:21:00,61.4,58.8,29.87,NW,314,0.0,6.0,91,0.00,,OVC014,0.01,VWS V14.01,2013-06-02 13:21:00,
2013-06-02 08:24:00,61.4,58.5,29.87,WNW,285,0.0,6.0,90,0.00,,OVC014,0.01,VWS V14.01,2013-06-02 13:24:00,
2013-06-02 08:26:00,61.5,58.5,29.87,WNW,302,0.0,6.0,90,0.00,,OVC014,0.01,VWS V14.01,2013-06-02 13:26:00,
2013-06-02 08:27:00,61.5,58.5,29.87,WNW,303,0.0,6.0,90,0.00,,OVC014,0.01,VWS V14.01,2013-06-02 13:27:00,
2013-06-02 08:29:00,61.5,58.5,29.87,WNW,299,0.0,6.0,90,0.00,,OVC014,0.01,VWS V14.01,2013-06-02 13:29:00,
2013-06-02 08:30:00,61.5,58.2,29.88,NW,304,0.0,6.0,89,0.00,,,0.01,VWS V14.01,2013-06-02 13:30:00,
2013-06-02 08:31:00,61.5,58.2,29.88,NW,304,0.0,0.0,89,0.00,,OVC014,0.01,VWS V14.01,2013-06-02 13:31:00,
2013-06-02 08:32:00,61.5,58.2,29.88,NW,304,0.0,0.0,89,0.00,,OVC014,0.01,VWS V14.01,2013-06-02 13:32:00,
2013-06-02 08:34:00,61.5,58.2,29.88,NW,305,0.0,0.0,89,0.00,,OVC014,0.01,VWS V14.01,2013-06-02 13:34:00,
2013-06-02 08:36:00,61.7,58.4,29.88,NW,305,0.0,0.0,89,0.00,,OVC014,0.01,VWS V14.01,2013-06-02 13:36:00,
2013-06-02 08:37:00,61.7,58.4,29.88,NW,305,0.0,0.0,89,0.00,,OVC014,0.01,VWS V14.01,2013-06-02 13:37:00,
2013-06-02 08:39:00,61.9,58.6,29.88,NW,305,0.0,0.0,89,0.00,,OVC014,0.01,VWS V14.01,2013-06-02 13:39:00,
2013-06-02 08:41:00,61.9,58.3,29.88,NW,308,0.0,2.0,88,0.00,,OVC014,0.01,VWS V14.01,2013-06-02 13:41:00,
2013-06-02 08:42:00,61.9,58.3,29.88,NW,308,0.0,2.0,88,0.00,,OVC014,0.01,VWS V14.01,2013-06-02 13:42:00,
2013-06-02 08:43:00,61.9,58.3,29.88,NW,308,0.0,2.0,88,0.00,,OVC014,0.01,VWS V14.01,2013-06-02 13:43:00,
2013-06-02 08:44:00,61.9,58.3,29.88,NNW,333,0.0,4.0,88,0.00,,OVC014,0.01,VWS V14.01,2013-06-02 13:44:00,
2013-06-02 08:45:00,61.9,58.3,29.88,NNW,333,0.0,4.0,88,0.00,,OVC014,0.01,VWS V14.01,2013-06-02 13:45:00,
2013-06-02 08:47:00,61.9,58.3,29.88,WNW,285,0.0,4.0,88,0.00,,OVC037,0.01,VWS V14.01,2013-06-02 13:47:00,
2013-06-02 08:48:00,61.9,58.3,29.88,West,273,0.0,4.0,88,0.00,,OVC037,0.01,VWS V14.01,2013-06-02 13:48:00,
2013-06-02 08:50:00,61.9,58.3,29.88,WNW,284,0.0,4.0,88,0.00,,OVC037,0.01,VWS V14.01,2013-06-02 13:50:00,
2013-06-02 08:52:00,61.9,58.0,29.88,SW,217,0.0,7.0,87,0.00,,OVC037,0.01,VWS V14.01,2013-06-02 13:52:00,
2013-06-02 08:53:00,61.9,58.0,29.88,NW,314,0.0,7.0,87,0.00,,OVC037,0.01,VWS V14.01,2013-06-02 13:53:00,
2013-06-02 08:55:00,61.9,58.0,29.88,NW,304,0.0,7.0,87,0.00,,OVC037,0.01,VWS V14.01,2013-06-02 13:55:00,
2013-06-02 08:57:00,62.0,58.1,29.88,NW,304,4.0,7.0,87,0.00,,OVC037,0.01,VWS V14.01,2013-06-02 13:57:00,
2013-06-02 08:58:00,62.0,58.1,29.88,NW,311,2.0,7.0,87,0.00,,OVC037,0.01,VWS V14.01,2013-06-02 13:58:00,
2013-06-02 09:00:00,62.0,58.1,29.88,WNW,299,4.0,9.0,87,0.00,,OVC037,0.01,VWS V14.01,2013-06-02 14:00:00,
2013-06-02 09:01:00,62.0,57.8,29.88,WNW,288,3.0,3.0,86,0.00,,OVC037,0.01,VWS V14.01,2013-06-02 14:01:00,
2013-06-02 09:02:00,62.0,57.8,29.88,NNW,328,6.0,10.0,86,0.00,,OVC037,0.01,VWS V14.01,2013-06-02 14:02:00,
2013-06-02 09:04:00,62.0,57.5,29.88,NW,317,0.0,10.0,85,0.00,,OVC037,0.01,VWS V14.01,2013-06-02 14:04:00,
2013-06-02 09:06:00,62.0,57.5,29.88,NNW,334,3.0,10.0,85,0.00,,OVC037,0.01,VWS V14.01,2013-06-02 14:06:00,
2013-06-02 09:07:00,62.0,57.5,29.88,NW,321,0.0,10.0,85,0.00,,OVC037,0.01,VWS V14.01,2013-06-02 14:07:00,
2013-06-02 09:09:00,62.0,57.5,29.88,NW,321,0.0,10.0,85,0.00,,OVC037,0.01,VWS V14.01,2013-06-02 14:09:00,
2013-06-02 09:11:00,62.0,57.5,29.88,NW,321,9.0,10.0,85,0.00,,OVC037,0.01,VWS V14.01,2013-06-02 14:11:00,
2013-06-02 09:12:00,62.0,57.1,29.88,North,360,3.0,10.0,84,0.00,,OVC037,0.01,VWS V14.01,2013-06-02 14:12:00,
2013-06-02 09:13:00,62.0,57.1,29.88,NW,320,1.0,10.0,84,0.00,,OVC037,0.01,VWS V14.01,2013-06-02 14:13:00,
2013-06-02 09:14:00,62.0,57.1,29.88,NW,317,3.0,10.0,84,0.00,,OVC037,0.01,VWS V14.01,2013-06-02 14:14:00,
2013-06-02 09:16:00,62.2,57.3,29.89,NW,323,0.0,10.0,84,0.00,,OVC037,0.01,VWS V14.01,2013-06-02 14:16:00,
2013-06-02 09:17:00,62.3,57.4,29.89,NW,309,0.0,10.0,84,0.00,,OVC037,0.01,VWS V14.01,2013-06-02 14:17:00,
2013-06-02 09:18:00,62.3,57.4,29.89,NW,317,0.0,10.0,84,0.00,,OVC037,0.01,VWS V14.01,2013-06-02 14:18:00,
2013-06-02 09:19:00,62.3,57.4,29.89,NW,326,0.0,10.0,84,0.00,,OVC037,0.01,VWS V14.01,2013-06-02 14:19:00,
2013-06-02 09:21:00,62.5,57.6,29.89,NW,312,0.0,10.0,84,0.00,,OVC037,0.01,VWS V14.01,2013-06-02 14:21:00,
2013-06-02 09:22:00,62.6,57.7,29.89,NW,316,0.0,12.0,84,0.00,,OVC037,0.01,VWS V14.01,2013-06-02 14:22:00,
2013-06-02 09:23:00,62.6,57.7,29.89,NW,321,0.0,12.0,84,0.00,,OVC037,0.01,VWS V14.01,2013-06-02 14:23:00,
2013-06-02 09:24:00,62.6,57.7,29.89,North,10,7.0,12.0,84,0.00,,OVC037,0.01,VWS V14.01,2013-06-02 14:24:00,
2013-06-02 09:26:00,62.8,57.6,29.89,WNW,290,0.0,12.0,83,0.00,,OVC037,0.01,VWS V14.01,2013-06-02 14:26:00,
2013-06-02 09:27:00,62.8,57.6,29.89,NW,311,0.0,12.0,83,0.00,,OVC037,0.01,VWS V14.01,2013-06-02 14:27:00,
2013-06-02 09:28:00,62.8,57.6,29.89,NW,304,0.0,12.0,83,0.00,,OVC037,0.01,VWS V14.01,2013-06-02 14:28:00,
2013-06-02 09:29:00,63.0,57.8,29.89,NW,325,0.0,12.0,83,0.00,,OVC037,0.01,VWS V14.01,2013-06-02 14:29:00,
2013-06-02 09:30:00,63.0,57.8,29.89,NW,319,0.0,12.0,83,0.00,,,0.01,VWS V14.01,2013-06-02 14:30:00,
2013-06-02 09:31:00,63.0,57.8,29.89,NW,316,0.0,0.0,83,0.00,,OVC037,0.01,VWS V14.01,2013-06-02 14:31:00,
2013-06-02 09:32:00,63.0,57.8,29.89,NNW,327,9.0,10.0,83,0.00,,OVC037,0.01,VWS V14.01,2013-06-02 14:32:00,
2013-06-02 09:34:00,63.0,57.8,29.89,NW,325,0.0,10.0,83,0.00,,OVC037,0.01,VWS V14.01,2013-06-02 14:34:00,
2013-06-02 09:36:00,63.0,57.8,29.89,NNW,332,0.0,10.0,83,0.00,,OVC037,0.01,VWS V14.01,2013-06-02 14:36:00,
2013-06-02 09:37:00,63.0,57.8,29.89,NNW,331,0.0,10.0,83,0.00,,OVC037,0.01,VWS V14.01,2013-06-02 14:37:00,
2013-06-02 09:39:00,63.0,57.8,29.89,NW,317,0.0,10.0,83,0.00,,OVC037,0.01,VWS V14.01,2013-06-02 14:39:00,
2013-06-02 09:41:00,63.0,57.8,29.89,North,351,9.0,11.0,83,0.00,,OVC037,0.01,VWS V14.01,2013-06-02 14:41:00,
2013-06-02 09:42:00,63.0,57.8,29.89,NW,319,3.0,11.0,83,0.00,,OVC037,0.01,VWS V14.01,2013-06-02 14:42:00,
2013-06-02 09:44:00,62.8,57.2,29.89,NW,323,0.0,11.0,82,0.00,,OVC037,0.01,VWS V14.01,2013-06-02 14:44:00,
2013-06-02 09:46:00,63.0,57.8,29.89,NW,324,0.0,11.0,83,0.00,,OVC018,0.01,VWS V14.01,2013-06-02 14:46:00,
2013-06-02 09:47:00,63.0,57.8,29.89,NNW,336,3.0,11.0,83,0.00,,OVC018,0.01,VWS V14.01,2013-06-02 14:47:00,
2013-06-02 09:48:00,63.0,57.4,29.89,NW,323,4.0,11.0,82,0.00,,OVC018,0.01,VWS V14.01,2013-06-02 14:48:00,
2013-06-02 09:49:00,62.8,57.2,29.89,NW,317,2.0,11.0,82,0.00,,OVC018,0.01,VWS V14.01,2013-06-02 14:49:00,
2013-06-02 09:51:00,62.8,57.2,29.89,NW,325,0.0,11.0,82,0.00,,OVC018,0.01,VWS V14.01,2013-06-02 14:51:00,
2013-06-02 09:52:00,62.8,57.2,29.89,NNW,342,4.0,11.0,82,0.00,,OVC018,0.01,VWS V14.01,2013-06-02 14:52:00,
2013-06-02 09:53:00,62.8,56.9,29.89,NW,325,3.0,11.0,81,0.00,,OVC018,0.01,VWS V14.01,2013-06-02 14:53:00,
2013-06-02 09:54:00,62.8,56.9,29.89,North,349,1.0,11.0,81,0.00,,OVC018,0.01,VWS V14.01,2013-06-02 14:54:00,
2013-06-02 09:56:00,62.8,56.9,29.89,North,349,0.0,11.0,81,0.00,,OVC018,0.01,VWS V14.01,2013-06-02 14:56:00,
2013-06-02 09:57:00,62.8,56.9,29.89,NNW,348,3.0,11.0,81,0.00,,OVC018,0.01,VWS V14.01,2013-06-02 14:57:00,
2013-06-02 09:59:00,62.8,56.9,29.89,NNW,334,3.0,11.0,81,0.00,,OVC018,0.01,VWS V14.01,2013-06-02 14:59:00,
2013-06-02 10:00:00,62.8,57.2,29.90,WNW,286,0.0,11.0,82,0.00,,OVC018,0.01,VWS V14.01,2013-06-02 15:00:00,
2013-06-02 10:01:00,62.8,57.2,29.90,NW,309,0.0,0.0,82,0.00,,OVC018,0.01,VWS V14.01,2013-06-02 15:01:00,
2013-06-02 10:03:00,62.8,57.2,29.90,NW,314,0.0,0.0,82,0.00,,OVC018,0.01,VWS V14.01,2013-06-02 15:03:00,
2013-06-02 10:04:00,62.8,57.2,29.90,North,355,4.0,4.0,82,0.00,,OVC018,0.01,VWS V14.01,2013-06-02 15:04:00,
2013-06-02 10:05:00,62.8,57.2,29.90,NW,314,4.0,7.0,82,0.00,,OVC018,0.01,VWS V14.01,2013-06-02 15:05:00,
2013-06-02 10:06:00,62.8,57.2,29.90,NW,313,0.0,8.0,82,0.00,,OVC018,0.01,VWS V14.01,2013-06-02 15:06:00,
2013-06-02 10:08:00,63.0,57.4,29.90,NNW,331,3.0,8.0,82,0.00,,OVC018,0.01,VWS V14.01,2013-06-02 15:08:00,
2013-06-02 10:09:00,63.0,57.4,29.90,NW,323,5.0,10.0,82,0.00,,OVC018,0.01,VWS V14.01,2013-06-02 15:09:00,
2013-06-02 10:10:00,63.0,57.4,29.90,NNW,340,4.0,10.0,82,0.00,,OVC018,0.01,VWS V14.01,2013-06-02 15:10:00,
2013-06-02 10:12:00,63.0,57.1,29.90,NW,321,2.0,11.0,81,0.00,,OVC018,0.01,VWS V14.01,2013-06-02 15:12:00,
2013-06-02 10:13:00,63.0,57.4,29.90,NW,304,2.0,11.0,82,0.00,,OVC018,0.01,VWS V14.01,2013-06-02 15:13:00,
2013-06-02 10:14:00,63.1,57.2,29.90,NW,314,0.0,11.0,81,0.00,,OVC018,0.01,VWS V14.01,2013-06-02 15:14:00,
2013-06-02 10:15:00,63.1,57.5,29.90,WNW,298,4.0,11.0,82,0.00,,OVC018,0.01,VWS V14.01,2013-06-02 15:15:00,
2013-06-02 10:17:00,63.1,57.2,29.90,NW,311,0.0,13.0,81,0.00,,OVC018,0.01,VWS V14.01,2013-06-02 15:17:00,
2013-06-02 10:18:00,63.3,57.4,29.90,WNW,295,2.0,13.0,81,0.00,,OVC018,0.01,VWS V14.01,2013-06-02 15:18:00,
2013-06-02 10:19:00,63.4,57.5,29.90,NNW,333,5.0,13.0,81,0.00,,OVC018,0.01,VWS V14.01,2013-06-02 15:19:00,
2013-06-02 10:20:00,63.4,57.5,29.90,NW,325,5.0,13.0,81,0.00,,OVC018,0.01,VWS V14.01,2013-06-02 15:20:00,
2013-06-02 10:22:00,63.6,57.7,29.90,NW,309,0.0,13.0,81,0.00,,OVC018,0.01,VWS V14.01,2013-06-02 15:22:00,
2013-06-02 10:23:00,63.6,57.7,29.90,NW,317,0.0,13.0,81,0.00,,OVC018,0.01,VWS V14.01,2013-06-02 15:23:00,
2013-06-02 10:24:00,63.8,57.9,29.90,NW,306,0.0,13.0,81,0.00,,OVC018,0.01,VWS V14.01,2013-06-02 15:24:00,
2013-06-02 10:25:00,63.8,57.9,29.90,NNW,329,3.0,13.0,81,0.00,,OVC018,0.01,VWS V14.01,2013-06-02 15:25:00,
2013-06-02 10:27:00,63.9,58.0,29.90,WNW,292,1.0,13.0,81,0.00,,OVC018,0.01,VWS V14.01,2013-06-02 15:27:00,
2013-06-02 10:28:00,63.9,57.6,29.90,NW,305,5.0,13.0,80,0.00,,OVC018,0.01,VWS V14.01,2013-06-02 15:28:00,
2013-06-02 10:29:00,63.9,57.6,29.90,NW,325,0.0,13.0,80,0.00,,OVC018,0.01,VWS V14.01,2013-06-02 15:29:00,
2013-06-02 10:30:00,64.1,57.8,29.90,NNW,334,0.0,13.0,80,0.00,,OVC018,0.01,VWS V14.01,2013-06-02 15:30:00,
2013-06-02 10:32:00,64.1,57.8,29.90,NW,306,1.0,9.0,80,0.00,,OVC018,0.01,VWS V14.01,2013-06-02 15:32:00,
2013-06-02 10:33:00,64.1,57.8,29.90,NNW,342,3.0,9.0,80,0.00,,OVC018,0.01,VWS V14.01,2013-06-02 15:33:00,
2013-06-02 10:35:00,63.9,57.6,29.90,North,355,5.0,9.0,80,0.00,,OVC018,0.01,VWS V14.01,2013-06-02 15:35:00,
2013-06-02 10:36:00,63.9,57.6,29.90,NW,317,1.0,12.0,80,0.00,,OVC018,0.01,VWS V14.01,2013-06-02 15:36:00,
2013-06-02 10:37:00,63.8,57.5,29.90,NW,304,4.0,12.0,80,0.00,,OVC018,0.01,VWS V14.01,2013-06-02 15:37:00,
2013-06-02 10:39:00,63.6,57.3,29.90,NW,315,0.0,12.0,80,0.00,,OVC018,0.01,VWS V14.01,2013-06-02 15:39:00,
2013-06-02 10:40:00,63.6,57.3,29.90,NW,313,6.0,12.0,80,0.00,,OVC018,0.01,VWS V14.01,2013-06-02 15:40:00,
2013-06-02 10:41:00,63.6,57.3,29.90,NW,323,5.0,12.0,80,0.00,,OVC018,0.01,VWS V14.01,2013-06-02 15:41:00,
2013-06-02 10:43:00,63.4,57.1,29.90,NW,322,0.0,12.0,80,0.00,,OVC018,0.01,VWS V14.01,2013-06-02 15:43:00,
2013-06-02 10:44:00,63.6,57.3,29.90,NW,321,7.0,12.0,80,0.00,,OVC018,0.01,VWS V14.01,2013-06-02 15:44:00,
2013-06-02 10:45:00,63.6,57.3,29.90,WNW,296,0.0,12.0,80,0.00,,OVC018,0.01,VWS V14.01,2013-06-02 15:45:00,
2013-06-02 10:46:00,63.6,57.7,29.90,NNW,328,9.0,12.0,81,0.00,,OVC014,0.01,VWS V14.01,2013-06-02 15:46:00,
2013-06-02 10:48:00,63.6,57.3,29.90,NW,323,6.0,12.0,80,0.00,,OVC014,0.01,VWS V14.01,2013-06-02 15:48:00,
2013-06-02 10:49:00,63.6,57.3,29.90,NNW,338,5.0,12.0,80,0.00,,OVC014,0.01,VWS V14.01,2013-06-02 15:49:00,
2013-06-02 10:50:00,63.6,57.3,29.90,WNW,292,0.0,12.0,80,0.00,,OVC014,0.01,VWS V14.01,2013-06-02 15:50:00,
2013-06-02 10:51:00,63.6,57.3,29.90,NW,310,0.0,12.0,80,0.00,,OVC014,0.01,VWS V14.01,2013-06-02 15:51:00,
2013-06-02 10:54:00,63.6,57.3,29.90,NW,325,0.0,12.0,80,0.00,,OVC014,0.01,VWS V14.01,2013-06-02 15:54:00,
2013-06-02 10:55:00,63.6,57.3,29.90,NW,309,1.0,12.0,80,0.00,,OVC014,0.01,VWS V14.01,2013-06-02 15:55:00,
2013-06-02 10:56:00,63.6,57.3,29.90,WNW,301,0.0,12.0,80,0.00,,OVC014,0.01,VWS V14.01,2013-06-02 15:56:00,
2013-06-02 10:59:00,63.6,57.3,29.90,WNW,300,0.0,12.0,80,0.00,,OVC014,0.01,VWS V14.01,2013-06-02 15:59:00,
2013-06-02 11:00:00,63.6,57.0,29.90,NW,319,0.0,12.0,79,0.00,,OVC014,0.01,VWS V14.01,2013-06-02 16:00:00,
2013-06-02 11:01:00,63.6,57.3,29.90,NW,316,7.0,7.0,80,0.00,,OVC014,0.01,VWS V14.01,2013-06-02 16:01:00,
2013-06-02 11:02:00,63.6,57.3,29.90,NW,320,5.0,11.0,80,0.00,,OVC014,0.01,VWS V14.01,2013-06-02 16:02:00,
2013-06-02 11:04:00,63.4,56.8,29.90,WNW,296,3.0,11.0,79,0.00,,OVC014,0.01,VWS V14.01,2013-06-02 16:04:00,
2013-06-02 11:06:00,63.3,57.0,29.90,NW,317,2.0,11.0,80,0.00,,OVC014,0.01,VWS V14.01,2013-06-02 16:06:00,
2013-06-02 11:07:00,63.3,56.7,29.90,NNW,333,3.0,11.0,79,0.00,,OVC014,0.01,VWS V14.01,2013-06-02 16:07:00,
2013-06-02 11:09:00,63.4,57.1,29.90,NW,313,5.0,11.0,80,0.00,,OVC014,0.01,VWS V14.01,2013-06-02 16:09:00,
2013-06-02 11:10:00,63.4,56.8,29.90,WNW,298,2.0,11.0,79,0.00,,OVC014,0.01,VWS V14.01,2013-06-02 16:10:00,
2013-06-02 11:11:00,63.4,56.8,29.90,WNW,299,0.0,11.0,79,0.00,,OVC014,0.01,VWS V14.01,2013-06-02 16:11:00,
2013-06-02 11:12:00,63.4,56.8,29.90,NW,321,1.0,11.0,79,0.00,,OVC014,0.01,VWS V14.01,2013-06-02 16:12:00,
2013-06-02 11:14:00,63.6,57.0,29.90,WNW,283,2.0,11.0,79,0.00,,OVC014,0.01,VWS V14.01,2013-06-02 16:14:00,
2013-06-02 11:15:00,63.6,57.0,29.91,WNW,282,0.0,11.0,79,0.00,,OVC014,0.01,VWS V14.01,2013-06-02 16:15:00,
2013-06-02 11:16:00,63.8,57.2,29.91,NNE,22,5.0,11.0,79,0.00,,OVC014,0.01,VWS V14.01,2013-06-02 16:16:00,
2013-06-02 11:17:00,63.8,56.8,29.91,NNE,14,0.0,11.0,78,0.00,,OVC014,0.01,VWS V14.01,2013-06-02 16:17:00,
2013-06-02 11:19:00,63.9,57.3,29.91,NNW,327,0.0,11.0,79,0.00,,OVC014,0.01,VWS V14.01,2013-06-02 16:19:00,
2013-06-02 11:20:00,63.9,57.3,29.91,WNW,286,0.0,11.0,79,0.00,,OVC014,0.01,VWS V14.01,2013-06-02 16:20:00,
2013-06-02 11:22:00,63.9,57.3,29.91,NNW,343,1.0,11.0,79,0.00,,OVC014,0.01,VWS V14.01,2013-06-02 16:22:00,
2013-06-02 11:24:00,63.8,56.8,29.91,WNW,303,0.0,11.0,78,0.00,,OVC014,0.01,VWS V14.01,2013-06-02 16:24:00,
2013-06-02 11:25:00,63.8,56.8,29.91,NNE,19,5.0,11.0,78,0.00,,OVC014,0.01,VWS V14.01,2013-06-02 16:25:00,
2013-06-02 11:27:00,63.6,56.6,29.91,NW,316,3.0,11.0,78,0.00,,OVC014,0.01,VWS V14.01,2013-06-02 16:27:00,
2013-06-02 11:29:00,63.4,56.4,29.91,NW,315,3.0,11.0,78,0.00,,OVC014,0.01,VWS V14.01,2013-06-02 16:29:00,
2013-06-02 11:30:00,63.4,56.8,29.91,WNW,296,0.0,11.0,79,0.00,,,0.01,VWS V14.01,2013-06-02 16:30:00,
2013-06-02 11:31:00,63.4,56.8,29.91,WNW,296,0.0,0.0,79,0.00,,OVC014,0.01,VWS V14.01,2013-06-02 16:31:00,
2013-06-02 11:32:00,63.4,56.8,29.91,NNW,332,0.0,0.0,79,0.00,,OVC014,0.01,VWS V14.01,2013-06-02 16:32:00,
2013-06-02 11:35:00,63.6,57.0,29.91,WNW,302,0.0,1.0,79,0.00,,OVC014,0.01,VWS V14.01,2013-06-02 16:35:00,
2013-06-02 11:36:00,63.6,57.0,29.91,NW,316,6.0,10.0,79,0.00,,OVC014,0.01,VWS V14.01,2013-06-02 16:36:00,
2013-06-02 11:37:00,63.4,56.4,29.91,WNW,295,7.0,10.0,78,0.00,,OVC014,0.01,VWS V14.01,2013-06-02 16:37:00,
2013-06-02 11:40:00,63.4,56.4,29.91,NW,305,0.0,10.0,78,0.00,,OVC014,0.01,VWS V14.01,2013-06-02 16:40:00,
2013-06-02 11:41:00,63.6,56.6,29.91,NW,321,5.0,10.0,78,0.00,,OVC014,0.01,VWS V14.01,2013-06-02 16:41:00,
2013-06-02 11:42:00,63.6,56.3,29.91,NW,314,7.0,11.0,77,0.00,,OVC014,0.01,VWS V14.01,2013-06-02 16:42:00,
2013-06-02 11:45:00,63.6,55.9,29.91,NW,311,1.0,13.0,76,0.00,,OVC014,0.01,VWS V14.01,2013-06-02 16:45:00,
2013-06-02 11:46:00,63.6,55.5,29.91,NW,304,0.0,13.0,75,0.00,,OVC024,0.01,VWS V14.01,2013-06-02 16:46:00,
2013-06-02 11:47:00,63.6,55.5,29.91,NW,316,1.0,13.0,75,0.00,,OVC024,0.01,VWS V14.01,2013-06-02 16:47:00,
2013-06-02 11:50:00,63.9,55.8,29.91,NW,323,0.0,13.0,75,0.00,,OVC024,0.01,VWS V14.01,2013-06-02 16:50:00,
2013-06-02 11:52:00,64.1,56.4,29.91,NNW,328,4.0,13.0,76,0.00,,OVC024,0.01,VWS V14.01,2013-06-02 16:52:00,
2013-06-02 11:55:00,64.2,56.1,29.91,NW,322,0.0,13.0,75,0.00,,OVC024,0.01,VWS V14.01,2013-06-02 16:55:00,
2013-06-02 11:57:00,64.2,56.5,29.91,NW,311,0.0,13.0,76,0.00,,OVC024,0.01,VWS V14.01,2013-06-02 16:57:00,
2013-06-02 11:58:00,64.2,56.1,29.91,NW,325,0.0,13.0,75,0.00,,OVC024,0.01,VWS V14.01,2013-06-02 16:58:00,
2013-06-02 12:00:00,64.2,56.1,29.92,NNW,331,11.0,13.0,75,0.00,,OVC024,0.01,VWS V14.01,2013-06-02 17:00:00,
2013-06-02 12:02:00,64.1,56.4,29.92,North,355,2.0,6.0,76,0.00,,OVC024,0.01,VWS V14.01,2013-06-02 17:02:00,
2013-06-02 12:03:00,64.1,56.4,29.92,NNW,329,5.0,11.0,76,0.00,,OVC024,0.01,VWS V14.01,2013-06-02 17:03:00,
2013-06-02 12:05:00,63.8,56.5,29.92,WNW,299,0.0,11.0,77,0.00,,OVC024,0.01,VWS V14.01,2013-06-02 17:05:00,
2013-06-02 12:07:00,63.6,56.3,29.92,NW,321,0.0,11.0,77,0.00,,OVC024,0.01,VWS V14.01,2013-06-02 17:07:00,
2013-06-02 12:08:00,63.6,56.3,29.92,NW,319,0.0,11.0,77,0.00,,OVC024,0.01,VWS V14.01,2013-06-02 17:08:00,
2013-06-02 12:11:00,63.4,56.1,29.92,North,5,5.0,11.0,77,0.00,,OVC024,0.01,VWS V14.01,2013-06-02 17:11:00,
2013-06-02 12:12:00,63.4,56.1,29.92,NW,321,6.0,11.0,77,0.00,,OVC024,0.01,VWS V14.01,2013-06-02 17:12:00,
2013-06-02 12:13:00,63.4,56.1,29.92,NNW,338,10.0,11.0,77,0.00,,OVC024,0.01,VWS V14.01,2013-06-02 17:13:00,
2013-06-02 12:16:00,63.4,56.1,29.92,NW,305,2.0,11.0,77,0.00,,OVC024,0.01,VWS V14.01,2013-06-02 17:16:00,
2013-06-02 12:17:00,63.4,56.1,29.92,NW,313,3.0,11.0,77,0.00,,OVC024,0.01,VWS V14.01,2013-06-02 17:17:00,
2013-06-02 12:18:00,63.4,56.1,29.92,WNW,300,0.0,11.0,77,0.00,,OVC024,0.01,VWS V14.01,2013-06-02 17:18:00,
2013-06-02 12:22:00,63.6,56.6,29.92,NW,319,2.0,11.0,78,0.00,,OVC024,0.01,VWS V14.01,2013-06-02 17:22:00,
2013-06-02 12:23:00,63.6,56.3,29.92,NW,319,4.0,11.0,77,0.00,,OVC024,0.01,VWS V14.01,2013-06-02 17:23:00,
2013-06-02 12:24:00,63.6,56.6,29.92,NW,315,3.0,11.0,78,0.00,,OVC024,0.01,VWS V14.01,2013-06-02 17:24:00,
2013-06-02 12:27:00,63.8,56.5,29.92,North,5,0.0,11.0,77,0.00,,OVC024,0.01,VWS V14.01,2013-06-02 17:27:00,
2013-06-02 12:28:00,63.9,56.9,29.92,NW,325,3.0,11.0,78,0.00,,OVC024,0.01,VWS V14.01,2013-06-02 17:28:00,
2013-06-02 12:29:00,63.9,56.6,29.92,NW,321,2.0,11.0,77,0.00,,OVC024,0.01,VWS V14.01,2013-06-02 17:29:00,
2013-06-02 12:30:00,64.1,56.8,29.92,WNW,302,5.0,11.0,77,0.00,,,0.01,VWS V14.01,2013-06-02 17:30:00,
2013-06-02 12:32:00,64.1,56.4,29.92,NW,309,3.0,6.0,76,0.00,,OVC024,0.01,VWS V14.01,2013-06-02 17:32:00,
2013-06-02 12:33:00,64.2,56.5,29.92,NW,319,0.0,6.0,76,0.00,,OVC024,0.01,VWS V14.01,2013-06-02 17:33:00,
2013-06-02 12:34:00,64.4,56.7,29.92,NNW,336,5.0,6.0,76,0.00,,OVC024,0.01,VWS V14.01,2013-06-02 17:34:00,
2013-06-02 12:37:00,64.6,56.1,29.92,NW,313,0.0,10.0,74,0.00,,OVC024,0.01,VWS V14.01,2013-06-02 17:37:00,
2013-06-02 12:38:00,64.7,56.2,29.92,NNW,327,5.0,10.0,74,0.00,,OVC024,0.01,VWS V14.01,2013-06-02 17:38:00,
2013-06-02 12:39:00,64.7,55.9,29.92,WNW,293,4.0,10.0,73,0.00,,OVC024,0.01,VWS V14.01,2013-06-02 17:39:00,
2013-06-02 12:42:00,65.1,55.9,29.92,NW,314,0.0,10.0,72,0.00,,OVC024,0.01,VWS V14.01,2013-06-02 17:42:00,
2013-06-02 12:43:00,65.2,56.0,29.92,NW,309,4.0,12.0,72,0.00,,OVC024,0.01,VWS V14.01,2013-06-02 17:43:00,
2013-06-02 12:44:00,65.2,55.6,29.92,NW,323,3.0,12.0,71,0.00,,OVC024,0.01,VWS V14.01,2013-06-02 17:44:00,
2013-06-02 12:47:00,65.7,55.7,29.92,NNW,347,5.0,12.0,70,0.00,,OVC037,0.01,VWS V14.01,2013-06-02 17:47:00,
2013-06-02 12:48:00,65.7,55.7,29.92,NW,315,0.0,12.0,70,0.00,,OVC037,0.01,VWS V14.01,2013-06-02 17:48:00,
2013-06-02 12:49:00,65.9,56.2,29.92,NW,317,4.0,12.0,71,0.00,,OVC037,0.01,VWS V14.01,2013-06-02 17:49:00,
2013-06-02 12:52:00,66.2,56.5,29.92,NNW,328,6.0,12.0,71,0.00,,OVC037,0.01,VWS V14.01,2013-06-02 17:52:00,
2013-06-02 12:54:00,66.2,56.1,29.92,NNW,331,0.0,12.0,70,0.00,,OVC037,0.01,VWS V14.01,2013-06-02 17:54:00,
2013-06-02 12:57:00,66.2,55.7,29.92,WNW,282,0.0,12.0,69,0.00,,OVC037,0.01,VWS V14.01,2013-06-02 17:57:00,
2013-06-02 12:59:00,66.0,55.5,29.92,WNW,294,0.0,12.0,69,0.00,,OVC037,0.01,VWS V14.01,2013-06-02 17:59:00,
2013-06-02 13:00:00,66.0,55.5,29.92,NNW,331,4.0,12.0,69,0.00,,OVC037,0.01,VWS V14.01,2013-06-02 18:00:00,
2013-06-02 13:02:00,65.9,55.5,29.92,NW,310,3.0,8.0,69,0.00,,OVC037,0.01,VWS V14.01,2013-06-02 18:02:00,
2013-06-02 13:04:00,65.9,55.5,29.92,NW,313,1.0,8.0,69,0.00,,OVC037,0.01,VWS V14.01,2013-06-02 18:04:00,
2013-06-02 13:05:00,65.7,55.3,29.92,NW,326,0.0,8.0,69,0.00,,OVC037,0.01,VWS V14.01,2013-06-02 18:05:00,
2013-06-02 13:07:00,65.7,55.7,29.92,WNW,288,0.0,8.0,70,0.00,,OVC037,0.01,VWS V14.01,2013-06-02 18:07:00,
2013-06-02 13:09:00,65.7,55.7,29.92,NW,309,0.0,8.0,70,0.00,,OVC037,0.01,VWS V14.01,2013-06-02 18:09:00,
2013-06-02 13:10:00,65.7,55.7,29.92,NW,310,0.0,8.0,70,0.00,,OVC037,0.01,VWS V14.01,2013-06-02 18:10:00,
2013-06-02 13:13:00,65.7,55.7,29.92,NW,322,0.0,8.0,70,0.00,,OVC037,0.01,VWS V14.01,2013-06-02 18:13:00,
2013-06-02 13:14:00,65.7,56.0,29.92,NW,317,0.0,8.0,71,0.00,,OVC037,0.01,VWS V14.01,2013-06-02 18:14:00,
2013-06-02 13:15:00,65.7,56.0,29.92,NW,317,0.0,8.0,71,0.00,,OVC037,0.01,VWS V14.01,2013-06-02 18:15:00,
2013-06-02 13:18:00,65.7,56.0,29.92,NW,318,4.0,8.0,71,0.00,,OVC037,0.01,VWS V14.01,2013-06-02 18:18:00,
2013-06-02 13:19:00,65.4,55.8,29.92,NNW,333,3.0,10.0,71,0.00,,OVC037,0.01,VWS V14.01,2013-06-02 18:19:00,
2013-06-02 13:20:00,65.4,55.8,29.92,NNW,330,6.0,10.0,71,0.00,,OVC037,0.01,VWS V14.01,2013-06-02 18:20:00,
2013-06-02 13:23:00,65.1,55.9,29.92,NW,314,0.0,12.0,72,0.00,,OVC037,0.01,VWS V14.01,2013-06-02 18:23:00,
2013-06-02 13:25:00,65.1,56.2,29.92,NW,307,2.0,12.0,73,0.00,,OVC037,0.01,VWS V14.01,2013-06-02 18:25:00,
2013-06-02 13:26:00,64.9,56.0,29.92,NW,309,5.0,12.0,73,0.00,,OVC037,0.01,VWS V14.01,2013-06-02 18:26:00,
2013-06-02 13:28:00,64.9,56.0,29.92,NNW,332,0.0,12.0,73,0.00,,OVC037,0.01,VWS V14.01,2013-06-02 18:28:00,
2013-06-02 13:30:00,64.9,56.4,29.92,NW,321,0.0,12.0,74,0.00,,OVC037,0.01,VWS V14.01,2013-06-02 18:30:00,
2013-06-02 13:31:00,64.7,57.3,29.92,NW,322,5.0,8.0,77,0.00,,OVC037,0.01,VWS V14.01,2013-06-02 18:31:00,
2013-06-02 13:33:00,64.7,55.9,29.92,NNW,333,0.0,9.0,73,0.00,,OVC037,0.01,VWS V14.01,2013-06-02 18:33:00,
2013-06-02 13:35:00,64.7,55.9,29.92,NW,309,0.0,9.0,73,0.00,,OVC037,0.01,VWS V14.01,2013-06-02 18:35:00,
2013-06-02 13:36:00,64.7,55.9,29.92,NW,309,0.0,9.0,73,0.00,,OVC037,0.01,VWS V14.01,2013-06-02 18:36:00,
2013-06-02 13:38:00,64.9,55.3,29.92,NW,319,3.0,10.0,71,0.00,,OVC037,0.01,VWS V14.01,2013-06-02 18:38:00,
2013-06-02 13:40:00,64.9,55.3,29.92,NW,313,1.0,11.0,71,0.00,,OVC037,0.01,VWS V14.01,2013-06-02 18:40:00,
2013-06-02 13:41:00,64.9,55.3,29.92,NW,309,6.0,11.0,71,0.00,,OVC037,0.01,VWS V14.01,2013-06-02 18:41:00,
2013-06-02 13:44:00,65.1,55.9,29.92,NNW,327,6.0,11.0,72,0.00,,OVC037,0.01,VWS V14.01,2013-06-02 18:44:00,
2013-06-02 13:45:00,65.1,55.9,29.93,NNW,338,0.0,11.0,72,0.00,,OVC032,0.01,VWS V14.01,2013-06-02 18:45:00,
2013-06-02 13:46:00,65.1,55.9,29.93,WNW,288,0.0,11.0,72,0.00,,OVC032,0.01,VWS V14.01,2013-06-02 18:46:00,
2013-06-02 13:47:00,65.1,55.9,29.93,NW,317,0.0,11.0,72,0.00,,OVC032,0.01,VWS V14.01,2013-06-02 18:47:00,
2013-06-02 13:49:00,65.1,55.9,29.93,WNW,303,0.0,11.0,72,0.00,,OVC032,0.01,VWS V14.01,2013-06-02 18:49:00,
2013-06-02 13:50:00,65.1,55.9,29.93,NW,319,0.0,11.0,72,0.00,,OVC032,0.01,VWS V14.01,2013-06-02 18:50:00,
2013-06-02 13:51:00,65.1,55.9,29.93,NW,318,3.0,11.0,72,0.00,,OVC032,0.01,VWS V14.01,2013-06-02 18:51:00,
2013-06-02 13:52:00,64.9,55.3,29.93,NW,325,5.0,11.0,71,0.00,,OVC032,0.01,VWS V14.01,2013-06-02 18:52:00,
2013-06-02 13:54:00,64.9,55.3,29.93,NW,309,0.0,11.0,71,0.00,,OVC032,0.01,VWS V14.01,2013-06-02 18:54:00,
2013-06-02 13:55:00,64.9,55.7,29.93,NNW,327,0.0,11.0,72,0.00,,OVC032,0.01,VWS V14.01,2013-06-02 18:55:00,
2013-06-02 13:56:00,64.7,55.5,29.93,NW,322,0.0,11.0,72,0.00,,OVC032,0.01,VWS V14.01,2013-06-02 18:56:00,
2013-06-02 13:57:00,64.9,55.7,29.93,NW,310,0.0,11.0,72,0.00,,OVC032,0.01,VWS V14.01,2013-06-02 18:57:00,
2013-06-02 13:59:00,64.7,55.5,29.93,NW,317,0.0,11.0,72,0.00,,OVC032,0.01,VWS V14.01,2013-06-02 18:59:00,
2013-06-02 14:00:00,64.7,55.5,29.92,NW,321,0.0,11.0,72,0.00,,,0.01,VWS V14.01,2013-06-02 19:00:00,
2013-06-02 14:01:00,64.7,55.5,29.92,NW,321,0.0,0.0,72,0.00,,OVC032,0.01,VWS V14.01,2013-06-02 19:01:00,
2013-06-02 14:02:00,64.9,56.0,29.92,NW,306,0.0,2.0,73,0.00,,OVC032,0.01,VWS V14.01,2013-06-02 19:02:00,
2013-06-02 14:04:00,64.9,55.7,29.92,NW,317,0.0,2.0,72,0.00,,OVC032,0.01,VWS V14.01,2013-06-02 19:04:00,
2013-06-02 14:06:00,65.1,55.5,29.92,NW,319,0.0,2.0,71,0.00,,OVC032,0.01,VWS V14.01,2013-06-02 19:06:00,
2013-06-02 14:07:00,65.1,55.5,29.92,NNW,336,7.0,7.0,71,0.00,,OVC032,0.01,VWS V14.01,2013-06-02 19:07:00,
2013-06-02 14:09:00,65.2,55.6,29.92,NW,319,0.0,7.0,71,0.00,,OVC032,0.01,VWS V14.01,2013-06-02 19:09:00,
2013-06-02 14:11:00,65.4,55.8,29.92,NNW,330,0.0,7.0,71,0.00,,OVC032,0.01,VWS V14.01,2013-06-02 19:11:00,
2013-06-02 14:12:00,65.5,56.2,29.92,NW,313,0.0,7.0,72,0.00,,OVC032,0.01,VWS V14.01,2013-06-02 19:12:00,
2013-06-02 14:14:00,65.5,55.9,29.92,WNW,301,0.0,7.0,71,0.00,,OVC032,0.01,VWS V14.01,2013-06-02 19:14:00,
2013-06-02 14:16:00,65.4,55.4,29.93,WNW,286,3.0,9.0,70,0.00,,OVC038,0.01,VWS V14.01,2013-06-02 19:16:00,
2013-06-02 14:17:00,65.2,55.6,29.93,NW,320,5.0,9.0,71,0.00,,OVC038,0.01,VWS V14.01,2013-06-02 19:17:00,
2013-06-02 14:19:00,65.1,55.5,29.93,NW,305,0.0,9.0,71,0.00,,OVC038,0.01,VWS V14.01,2013-06-02 19:19:00,
2013-06-02 14:21:00,65.1,55.9,29.93,NW,317,0.0,9.0,72,0.00,,OVC038,0.01,VWS V14.01,2013-06-02 19:21:00,
2013-06-02 14:22:00,64.9,55.7,29.93,NW,317,0.0,9.0,72,0.00,,OVC038,0.01,VWS V14.01,2013-06-02 19:22:00,
2013-06-02 14:23:00,64.9,55.7,29.93,NW,315,0.0,9.0,72,0.00,,OVC038,0.01,VWS V14.01,2013-06-02 19:23:00,
2013-06-02 14:24:00,64.7,55.9,29.93,NW,305,4.0,10.0,73,0.00,,OVC038,0.01,VWS V14.01,2013-06-02 19:24:00,
2013-06-02 14:26:00,64.7,55.9,29.93,NW,308,0.0,10.0,73,0.00,,OVC038,0.01,VWS V14.01,2013-06-02 19:26:00,
2013-06-02 14:27:00,64.7,55.9,29.93,NNW,329,3.0,10.0,73,0.00,,OVC038,0.01,VWS V14.01,2013-06-02 19:27:00,
2013-06-02 14:28:00,64.7,55.9,29.93,NNW,338,3.0,10.0,73,0.00,,OVC038,0.01,VWS V14.01,2013-06-02 19:28:00,
2013-06-02 14:30:00,64.6,55.8,29.93,NNW,343,3.0,10.0,73,0.00,,OVC038,0.01,VWS V14.01,2013-06-02 19:30:00,
2013-06-02 14:31:00,64.6,55.8,29.93,WNW,297,1.0,7.0,73,0.00,,OVC038,0.01,VWS V14.01,2013-06-02 19:31:00,
2013-06-02 14:32:00,64.6,55.8,29.93,NNW,340,3.0,7.0,73,0.00,,OVC038,0.01,VWS V14.01,2013-06-02 19:32:00,
2013-06-02 14:33:00,64.6,55.8,29.93,NW,324,2.0,7.0,73,0.00,,OVC038,0.01,VWS V14.01,2013-06-02 19:33:00,
2013-06-02 14:35:00,64.4,55.6,29.93,NNW,341,7.0,9.0,73,0.00,,OVC038,0.01,VWS V14.01,2013-06-02 19:35:00,
2013-06-02 14:37:00,64.4,55.6,29.93,NW,310,0.0,10.0,73,0.00,,OVC038,0.01,VWS V14.01,2013-06-02 19:37:00,
2013-06-02 14:38:00,64.4,55.2,29.93,NNW,335,2.0,10.0,72,0.00,,OVC038,0.01,VWS V14.01,2013-06-02 19:38:00,
2013-06-02 14:40:00,64.2,55.0,29.93,NW,317,7.0,11.0,72,0.00,,OVC038,0.01,VWS V14.01,2013-06-02 19:40:00,
2013-06-02 14:42:00,64.2,55.0,29.93,NNW,331,7.0,11.0,72,0.00,,OVC038,0.01,VWS V14.01,2013-06-02 19:42:00,
2013-06-02 14:43:00,64.2,55.0,29.93,NW,309,5.0,11.0,72,0.00,,OVC038,0.01,VWS V14.01,2013-06-02 19:43:00,
2013-06-02 14:46:00,64.1,55.3,29.94,NW,309,0.0,11.0,73,0.00,,OVC038,0.01,VWS V14.01,2013-06-02 19:46:00,
2013-06-02 14:47:00,64.1,55.3,29.94,NW,326,2.0,11.0,73,0.00,,OVC038,0.01,VWS V14.01,2013-06-02 19:47:00,
2013-06-02 14:48:00,64.1,55.3,29.94,WNW,292,0.0,11.0,73,0.00,,OVC038,0.01,VWS V14.01,2013-06-02 19:48:00,
2013-06-02 14:51:00,64.1,55.7,29.94,NW,310,3.0,11.0,74,0.00,,OVC038,0.01,VWS V14.01,2013-06-02 19:51:00,
2013-06-02 14:52:00,64.1,56.0,29.94,NNW,333,0.0,11.0,75,0.00,,OVC038,0.01,VWS V14.01,2013-06-02 19:52:00,
2013-06-02 14:53:00,64.1,56.0,29.94,NNW,333,0.0,11.0,75,0.00,,OVC038,0.01,VWS V14.01,2013-06-02 19:53:00,
2013-06-02 14:54:00,64.1,56.0,29.94,NNE,30,1.0,11.0,75,0.00,,OVC038,0.01,VWS V14.01,2013-06-02 19:54:00,
2013-06-02 14:56:00,63.9,55.5,29.94,NW,306,4.0,11.0,74,0.00,,OVC038,0.01,VWS V14.01,2013-06-02 19:56:00,
2013-06-02 14:58:00,63.9,55.5,29.94,WNW,285,4.0,11.0,74,0.00,,OVC038,0.01,VWS V14.01,2013-06-02 19:58:00,
2013-06-02 14:59:00,63.8,55.4,29.94,NW,307,5.0,11.0,74,0.00,,OVC038,0.01,VWS V14.01,2013-06-02 19:59:00,
2013-06-02 15:00:00,63.8,55.7,29.94,NW,311,4.0,11.0,75,0.00,,,0.01,VWS V14.01,2013-06-02 20:00:00,
2013-06-02 15:01:00,63.8,55.7,29.94,NW,324,5.0,5.0,75,0.00,,OVC033,0.01,VWS V14.01,2013-06-02 20:01:00,
2013-06-02 15:03:00,63.8,55.7,29.94,NW,315,3.0,6.0,75,0.00,,OVC033,0.01,VWS V14.01,2013-06-02 20:03:00,
2013-06-02 15:04:00,63.8,55.7,29.94,WNW,296,0.0,6.0,75,0.00,,OVC033,0.01,VWS V14.01,2013-06-02 20:04:00,
2013-06-02 15:06:00,63.8,55.4,29.94,NNW,338,9.0,12.0,74,0.00,,OVC033,0.01,VWS V14.01,2013-06-02 20:06:00,
2013-06-02 15:08:00,63.8,55.7,29.94,NW,307,3.0,12.0,75,0.00,,OVC033,0.01,VWS V14.01,2013-06-02 20:08:00,
2013-06-02 15:09:00,63.8,55.7,29.94,NW,310,0.0,12.0,75,0.00,,OVC033,0.01,VWS V14.01,2013-06-02 20:09:00,
2013-06-02 15:12:00,63.8,56.1,29.94,NW,317,3.0,12.0,76,0.00,,OVC033,0.01,VWS V14.01,2013-06-02 20:12:00,
2013-06-02 15:13:00,63.8,55.7,29.94,NW,317,3.0,12.0,75,0.00,,OVC033,0.01,VWS V14.01,2013-06-02 20:13:00,
2013-06-02 15:14:00,63.8,55.7,29.94,NW,326,0.0,12.0,75,0.00,,OVC033,0.01,VWS V14.01,2013-06-02 20:14:00,
2013-06-02 15:17:00,63.8,55.7,29.94,North,350,0.0,12.0,75,0.00,,OVC033,0.01,VWS V14.01,2013-06-02 20:17:00,
2013-06-02 15:18:00,63.8,55.7,29.94,NNW,333,0.0,12.0,75,0.00,,OVC033,0.01,VWS V14.01,2013-06-02 20:18:00,
2013-06-02 15:19:00,63.8,56.1,29.94,NW,310,4.0,12.0,76,0.00,,OVC033,0.01,VWS V14.01,2013-06-02 20:19:00,
2013-06-02 15:20:00,63.8,56.1,29.94,WNW,296,5.0,12.0,76,0.00,,OVC033,0.01,VWS V14.01,2013-06-02 20:20:00,
2013-06-02 15:22:00,63.6,55.9,29.94,WNW,294,5.0,12.0,76,0.00,,OVC033,0.01,VWS V14.01,2013-06-02 20:22:00,
2013-06-02 15:23:00,63.6,55.9,29.94,NW,315,3.0,12.0,76,0.00,,OVC033,0.01,VWS V14.01,2013-06-02 20:23:00,
2013-06-02 15:24:00,63.6,55.9,29.94,NNW,335,1.0,12.0,76,0.00,,OVC033,0.01,VWS V14.01,2013-06-02 20:24:00,
2013-06-02 15:25:00,63.4,55.7,29.94,NNW,347,5.0,12.0,76,0.00,,OVC033,0.01,VWS V14.01,2013-06-02 20:25:00,
2013-06-02 15:28:00,63.3,55.6,29.94,NW,311,4.0,12.0,76,0.00,,OVC033,0.01,VWS V14.01,2013-06-02 20:28:00,
2013-06-02 15:29:00,63.3,55.6,29.94,NW,321,0.0,12.0,76,0.00,,OVC033,0.01,VWS V14.01,2013-06-02 20:29:00,
2013-06-02 15:30:00,63.3,55.6,29.94,NW,321,3.0,12.0,76,0.00,,OVC033,0.01,VWS V14.01,2013-06-02 20:30:00,
2013-06-02 15:33:00,63.1,55.8,29.94,NW,315,1.0,9.0,77,0.00,,OVC033,0.01,VWS V14.01,2013-06-02 20:33:00,
2013-06-02 15:34:00,63.0,55.7,29.94,NW,310,3.0,9.0,77,0.00,,OVC033,0.01,VWS V14.01,2013-06-02 20:34:00,
2013-06-02 15:35:00,63.0,55.7,29.94,NW,324,0.0,9.0,77,0.00,,OVC033,0.01,VWS V14.01,2013-06-02 20:35:00,
2013-06-02 15:38:00,62.8,55.5,29.94,NNW,328,0.0,9.0,77,0.00,,OVC033,0.01,VWS V14.01,2013-06-02 20:38:00,
2013-06-02 15:39:00,62.8,55.5,29.94,WNW,293,0.0,9.0,77,0.00,,OVC033,0.01,VWS V14.01,2013-06-02 20:39:00,
2013-06-02 15:40:00,62.8,55.8,29.94,NNW,336,0.0,9.0,78,0.00,,OVC033,0.01,VWS V14.01,2013-06-02 20:40:00,
2013-06-02 15:43:00,62.8,55.8,29.94,NNW,336,0.0,9.0,78,0.00,,OVC033,0.01,VWS V14.01,2013-06-02 20:43:00,
2013-06-02 15:44:00,63.0,56.0,29.94,NW,318,5.0,9.0,78,0.00,,OVC033,0.01,VWS V14.01,2013-06-02 20:44:00,
2013-06-02 15:45:00,63.0,55.7,29.94,North,360,2.0,9.0,77,0.00,,OVC033,0.01,VWS V14.01,2013-06-02 20:45:00,
2013-06-02 15:48:00,63.0,56.0,29.94,NW,313,0.0,9.0,78,0.00,,OVC033,0.01,VWS V14.01,2013-06-02 20:48:00,
2013-06-02 15:49:00,63.0,56.0,29.94,North,351,0.0,9.0,78,0.00,,OVC033,0.01,VWS V14.01,2013-06-02 20:49:00,
2013-06-02 15:50:00,63.0,55.7,29.94,WNW,302,2.0,9.0,77,0.00,,OVC033,0.01,VWS V14.01,2013-06-02 20:50:00,
2013-06-02 15:53:00,62.8,55.1,29.94,WNW,290,2.0,12.0,76,0.00,,OVC033,0.01,VWS V14.01,2013-06-02 20:53:00,
2013-06-02 15:54:00,62.8,55.1,29.94,WNW,300,3.0,12.0,76,0.00,,OVC033,0.01,VWS V14.01,2013-06-02 20:54:00,
2013-06-02 15:55:00,62.8,55.1,29.94,NNW,340,0.0,12.0,76,0.00,,OVC033,0.01,VWS V14.01,2013-06-02 20:55:00,
2013-06-02 15:58:00,62.8,55.1,29.94,North,355,4.0,12.0,76,0.00,,OVC033,0.01,VWS V14.01,2013-06-02 20:58:00,
2013-06-02 15:59:00,62.8,55.1,29.94,NW,304,4.0,12.0,76,0.00,,OVC033,0.01,VWS V14.01,2013-06-02 20:59:00,
2013-06-02 16:00:00,62.8,55.1,29.94,NW,305,0.0,12.0,76,0.00,,OVC033,0.01,VWS V14.01,2013-06-02 21:00:00,
2013-06-02 16:01:00,62.8,55.1,29.94,NW,320,0.0,0.0,76,0.00,,OVC033,0.01,VWS V14.01,2013-06-02 21:01:00,
2013-06-02 16:03:00,62.8,55.1,29.94,NW,306,1.0,7.0,76,0.00,,OVC029,0.01,VWS V14.01,2013-06-02 21:03:00,
2013-06-02 16:04:00,62.8,55.1,29.94,NW,311,0.0,7.0,76,0.00,,OVC029,0.01,VWS V14.01,2013-06-02 21:04:00,
2013-06-02 16:06:00,62.8,55.1,29.94,NW,309,0.0,7.0,76,0.00,,OVC029,0.01,VWS V14.01,2013-06-02 21:06:00,
2013-06-02 16:08:00,62.8,55.5,29.94,NW,319,3.0,9.0,77,0.00,,OVC029,0.01,VWS V14.01,2013-06-02 21:08:00,
2013-06-02 16:09:00,62.8,55.1,29.94,NW,325,0.0,9.0,76,0.00,,OVC029,0.01,VWS V14.01,2013-06-02 21:09:00,
2013-06-02 16:11:00,62.8,55.1,29.94,WNW,296,4.0,9.0,76,0.00,,OVC029,0.01,VWS V14.01,2013-06-02 21:11:00,
2013-06-02 16:14:00,63.0,55.3,29.94,NW,316,0.0,9.0,76,0.00,,OVC029,0.01,VWS V14.01,2013-06-02 21:14:00,
2013-06-02 16:15:00,63.0,55.3,29.93,NNW,342,1.0,9.0,76,0.00,,OVC029,0.01,VWS V14.01,2013-06-02 21:15:00,
2013-06-02 16:16:00,63.0,55.3,29.93,NW,324,0.0,9.0,76,0.00,,OVC029,0.01,VWS V14.01,2013-06-02 21:16:00,
2013-06-02 16:19:00,63.0,55.7,29.93,NW,315,0.0,9.0,77,0.00,,OVC029,0.01,VWS V14.01,2013-06-02 21:19:00,
2013-06-02 16:20:00,63.0,55.7,29.93,NW,315,3.0,9.0,77,0.00,,OVC029,0.01,VWS V14.01,2013-06-02 21:20:00,
2013-06-02 16:21:00,63.0,55.3,29.93,NW,313,0.0,9.0,76,0.00,,OVC029,0.01,VWS V14.01,2013-06-02 21:21:00,
2013-06-02 16:22:00,63.1,55.8,29.93,NW,323,1.0,9.0,77,0.00,,OVC029,0.01,VWS V14.01,2013-06-02 21:22:00,
2013-06-02 16:24:00,63.1,55.8,29.93,NW,321,1.0,9.0,77,0.00,,OVC029,0.01,VWS V14.01,2013-06-02 21:24:00,
2013-06-02 16:25:00,63.1,55.8,29.93,NNW,333,2.0,9.0,77,0.00,,OVC029,0.01,VWS V14.01,2013-06-02 21:25:00,
2013-06-02 16:26:00,63.1,55.8,29.93,NW,311,0.0,9.0,77,0.00,,OVC029,0.01,VWS V14.01,2013-06-02 21:26:00,
2013-06-02 16:27:00,63.1,55.4,29.93,NNW,331,1.0,9.0,76,0.00,,OVC029,0.01,VWS V14.01,2013-06-02 21:27:00,
2013-06-02 16:29:00,63.3,56.0,29.93,NW,322,0.0,9.0,77,0.00,,OVC029,0.01,VWS V14.01,2013-06-02 21:29:00,
2013-06-02 16:30:00,63.3,56.0,29.93,NW,311,0.0,9.0,77,0.00,,,0.01,VWS V14.01,2013-06-02 21:30:00,
2013-06-02 16:31:00,63.3,56.0,29.93,NW,311,0.0,0.0,77,0.00,,OVC029,0.01,VWS V14.01,2013-06-02 21:31:00,
2013-06-02 16:32:00,63.3,55.6,29.93,NW,322,0.0,1.0,76,0.00,,OVC029,0.01,VWS V14.01,2013-06-02 21:32:00,
2013-06-02 16:34:00,63.4,55.7,29.93,NW,316,2.0,5.0,76,0.00,,OVC029,0.01,VWS V14.01,2013-06-02 21:34:00,
2013-06-02 16:36:00,63.3,55.6,29.93,NNW,347,0.0,5.0,76,0.00,,OVC029,0.01,VWS V14.01,2013-06-02 21:36:00,
2013-06-02 16:37:00,63.3,55.6,29.93,NNW,333,3.0,5.0,76,0.00,,OVC029,0.01,VWS V14.01,2013-06-02 21:37:00,
2013-06-02 16:39:00,63.4,55.7,29.93,WNW,292,0.0,5.0,76,0.00,,OVC029,0.01,VWS V14.01,2013-06-02 21:39:00,
2013-06-02 16:41:00,63.3,55.6,29.93,WNW,303,0.0,6.0,76,0.00,,OVC029,0.01,VWS V14.01,2013-06-02 21:41:00,
2013-06-02 16:42:00,63.3,55.6,29.93,NW,305,0.0,9.0,76,0.00,,OVC029,0.01,VWS V14.01,2013-06-02 21:42:00,
2013-06-02 16:44:00,63.3,56.0,29.93,NW,312,0.0,9.0,77,0.00,,OVC029,0.01,VWS V14.01,2013-06-02 21:44:00,
2013-06-02 16:46:00,63.3,56.0,29.93,NW,310,3.0,10.0,77,0.00,,OVC029,0.01,VWS V14.01,2013-06-02 21:46:00,
2013-06-02 16:47:00,63.3,56.0,29.93,NW,321,4.0,10.0,77,0.00,,OVC029,0.01,VWS V14.01,2013-06-02 21:47:00,
2013-06-02 16:48:00,63.1,55.8,29.93,NW,316,0.0,10.0,77,0.00,,OVC029,0.01,VWS V14.01,2013-06-02 21:48:00,
2013-06-02 16:49:00,63.0,55.7,29.93,NW,317,6.0,10.0,77,0.00,,OVC029,0.01,VWS V14.01,2013-06-02 21:49:00,
2013-06-02 16:51:00,63.0,55.7,29.93,NW,317,0.0,10.0,77,0.00,,OVC029,0.01,VWS V14.01,2013-06-02 21:51:00,
2013-06-02 16:52:00,62.8,55.5,29.93,NW,319,7.0,10.0,77,0.00,,OVC029,0.01,VWS V14.01,2013-06-02 21:52:00,
2013-06-02 16:53:00,62.8,55.5,29.93,NW,311,6.0,10.0,77,0.00,,OVC029,0.01,VWS V14.01,2013-06-02 21:53:00,
2013-06-02 16:54:00,62.6,55.3,29.93,NW,323,7.0,10.0,77,0.00,,OVC029,0.01,VWS V14.01,2013-06-02 21:54:00,
2013-06-02 16:56:00,62.6,55.3,29.93,NNW,340,6.0,10.0,77,0.00,,OVC029,0.01,VWS V14.01,2013-06-02 21:56:00,
2013-06-02 16:57:00,62.6,55.3,29.93,NNW,335,9.0,11.0,77,0.00,,OVC029,0.01,VWS V14.01,2013-06-02 21:57:00,
2013-06-02 16:58:00,62.6,55.3,29.93,NNW,327,10.0,11.0,77,0.00,,OVC029,0.01,VWS V14.01,2013-06-02 21:58:00,
2013-06-02 16:59:00,62.5,55.2,29.93,NW,317,4.0,11.0,77,0.00,,OVC029,0.01,VWS V14.01,2013-06-02 21:59:00,
2013-06-02 17:00:00,62.5,55.2,29.93,NW,326,6.0,11.0,77,0.00,,,0.01,VWS V14.01,2013-06-02 22:00:00,
2013-06-02 17:01:00,62.5,55.2,29.93,NNW,346,6.0,8.0,77,0.00,,OVC029,0.01,VWS V14.01,2013-06-02 22:01:00,
2013-06-02 17:02:00,62.5,55.2,29.93,NW,304,0.0,9.0,77,0.00,,OVC038,0.01,VWS V14.01,2013-06-02 22:02:00,
2013-06-02 17:03:00,62.5,55.2,29.93,NW,311,1.0,9.0,77,0.00,,OVC038,0.01,VWS V14.01,2013-06-02 22:03:00,
2013-06-02 17:04:00,62.5,55.2,29.93,NNW,344,6.0,9.0,77,0.00,,OVC038,0.01,VWS V14.01,2013-06-02 22:04:00,
2013-06-02 17:06:00,62.5,55.2,29.93,North,360,0.0,11.0,77,0.00,,OVC038,0.01,VWS V14.01,2013-06-02 22:06:00,
2013-06-02 17:07:00,62.5,55.2,29.93,North,11,0.0,11.0,77,0.00,,OVC038,0.01,VWS V14.01,2013-06-02 22:07:00,
2013-06-02 17:08:00,62.5,55.2,29.93,NW,317,5.0,11.0,77,0.00,,OVC038,0.01,VWS V14.01,2013-06-02 22:08:00,
2013-06-02 17:09:00,62.3,55.0,29.93,NNW,342,3.0,11.0,77,0.00,,OVC038,0.01,VWS V14.01,2013-06-02 22:09:00,
2013-06-02 17:12:00,62.3,55.0,29.93,NW,311,2.0,11.0,77,0.00,,OVC038,0.01,VWS V14.01,2013-06-02 22:12:00,
2013-06-02 17:13:00,62.3,55.0,29.93,NW,311,7.0,11.0,77,0.00,,OVC038,0.01,VWS V14.01,2013-06-02 22:13:00,
2013-06-02 17:14:00,62.3,55.0,29.93,NW,317,5.0,11.0,77,0.00,,OVC038,0.01,VWS V14.01,2013-06-02 22:14:00,
2013-06-02 17:15:00,62.3,55.0,29.93,NW,317,3.0,11.0,77,0.00,,OVC038,0.01,VWS V14.01,2013-06-02 22:15:00,
2013-06-02 17:17:00,62.3,55.0,29.93,WNW,297,0.0,11.0,77,0.00,,OVC038,0.01,VWS V14.01,2013-06-02 22:17:00,
2013-06-02 17:18:00,62.3,55.0,29.93,NW,310,0.0,11.0,77,0.00,,OVC038,0.01,VWS V14.01,2013-06-02 22:18:00,
2013-06-02 17:19:00,62.3,55.0,29.93,NW,308,5.0,11.0,77,0.00,,OVC038,0.01,VWS V14.01,2013-06-02 22:19:00,
2013-06-02 17:20:00,62.3,54.7,29.93,NW,312,4.0,11.0,76,0.00,,OVC038,0.01,VWS V14.01,2013-06-02 22:20:00,
2013-06-02 17:22:00,62.3,54.7,29.93,West,277,2.0,11.0,76,0.00,,OVC038,0.01,VWS V14.01,2013-06-02 22:22:00,
2013-06-02 17:23:00,62.3,55.0,29.93,WNW,284,0.0,11.0,77,0.00,,OVC038,0.01,VWS V14.01,2013-06-02 22:23:00,
2013-06-02 17:25:00,62.3,55.0,29.93,WNW,300,0.0,11.0,77,0.00,,OVC038,0.01,VWS V14.01,2013-06-02 22:25:00,
2013-06-02 17:27:00,62.3,55.0,29.93,NNW,330,0.0,11.0,77,0.00,,OVC038,0.01,VWS V14.01,2013-06-02 22:27:00,
2013-06-02 17:28:00,62.5,55.2,29.93,WNW,291,1.0,11.0,77,0.00,,OVC038,0.01,VWS V14.01,2013-06-02 22:28:00,
2013-06-02 17:30:00,62.3,55.0,29.93,NNW,337,10.0,11.0,77,0.00,,OVC038,0.01,VWS V14.01,2013-06-02 22:30:00,
2013-06-02 17:32:00,62.3,54.7,29.93,NNW,336,0.0,5.0,76,0.00,,OVC038,0.01,VWS V14.01,2013-06-02 22:32:00,
2013-06-02 17:33:00,62.3,54.7,29.93,NW,322,6.0,6.0,76,0.00,,OVC038,0.01,VWS V14.01,2013-06-02 22:33:00,
2013-06-02 17:35:00,62.3,54.7,29.93,NW,309,0.0,9.0,76,0.00,,OVC038,0.01,VWS V14.01,2013-06-02 22:35:00,
2013-06-02 17:37:00,62.2,54.5,29.93,NW,311,3.0,11.0,76,0.00,,OVC038,0.01,VWS V14.01,2013-06-02 22:37:00,
2013-06-02 17:38:00,62.2,54.5,29.93,NNW,329,4.0,11.0,76,0.00,,OVC038,0.01,VWS V14.01,2013-06-02 22:38:00,
2013-06-02 17:40:00,62.2,54.5,29.93,NNW,327,0.0,11.0,76,0.00,,OVC038,0.01,VWS V14.01,2013-06-02 22:40:00,
2013-06-02 17:42:00,62.3,55.0,29.93,NW,319,0.0,11.0,77,0.00,,OVC038,0.01,VWS V14.01,2013-06-02 22:42:00,
2013-06-02 17:43:00,62.3,55.0,29.93,NNW,337,0.0,11.0,77,0.00,,OVC038,0.01,VWS V14.01,2013-06-02 22:43:00,
2013-06-02 17:45:00,62.2,54.9,29.93,NW,314,6.0,11.0,77,0.00,,OVC038,0.01,VWS V14.01,2013-06-02 22:45:00,
2013-06-02 17:47:00,62.2,54.9,29.93,NW,317,7.0,11.0,77,0.00,,OVC038,0.01,VWS V14.01,2013-06-02 22:47:00,
2013-06-02 17:48:00,62.0,54.7,29.93,NW,311,3.0,11.0,77,0.00,,OVC038,0.01,VWS V14.01,2013-06-02 22:48:00,
2013-06-02 17:50:00,62.0,55.1,29.93,NW,312,4.0,11.0,78,0.00,,OVC038,0.01,VWS V14.01,2013-06-02 22:50:00,
2013-06-02 17:51:00,62.0,55.1,29.93,NW,323,1.0,11.0,78,0.00,,OVC038,0.01,VWS V14.01,2013-06-02 22:51:00,
2013-06-02 17:52:00,61.9,55.0,29.93,NW,319,3.0,11.0,78,0.00,,OVC038,0.01,VWS V14.01,2013-06-02 22:52:00,
2013-06-02 17:53:00,61.9,55.0,29.93,NW,325,0.0,11.0,78,0.00,,OVC038,0.01,VWS V14.01,2013-06-02 22:53:00,
2013-06-02 17:55:00,61.9,55.0,29.93,NW,311,0.0,11.0,78,0.00,,OVC038,0.01,VWS V14.01,2013-06-02 22:55:00,
2013-06-02 17:56:00,61.9,55.0,29.93,North,5,1.0,11.0,78,0.00,,OVC038,0.01,VWS V14.01,2013-06-02 22:56:00,
2013-06-02 17:58:00,61.9,55.0,29.93,NW,316,5.0,11.0,78,0.00,,OVC038,0.01,VWS V14.01,2013-06-02 22:58:00,
2013-06-02 18:00:00,61.7,54.4,29.93,NW,317,0.0,11.0,77,0.00,,OVC038,0.01,VWS V14.01,2013-06-02 23:00:00,
2013-06-02 18:01:00,61.7,54.4,29.93,NW,326,3.0,4.0,77,0.00,,OVC038,0.01,VWS V14.01,2013-06-02 23:01:00,
2013-06-02 18:03:00,61.9,55.0,29.93,North,5,0.0,4.0,78,0.00,,OVC049,0.01,VWS V14.01,2013-06-02 23:03:00,
2013-06-02 18:04:00,61.9,55.0,29.93,North,355,0.0,4.0,78,0.00,,OVC049,0.01,VWS V14.01,2013-06-02 23:04:00,
2013-06-02 18:06:00,61.9,55.0,29.93,NW,321,0.0,6.0,78,0.00,,OVC049,0.01,VWS V14.01,2013-06-02 23:06:00,
2013-06-02 18:08:00,61.9,55.0,29.93,NW,321,0.0,6.0,78,0.00,,OVC049,0.01,VWS V14.01,2013-06-02 23:08:00,
2013-06-02 18:09:00,61.7,54.8,29.93,NW,304,0.0,6.0,78,0.00,,OVC049,0.01,VWS V14.01,2013-06-02 23:09:00,
2013-06-02 18:11:00,61.9,55.0,29.93,NW,323,3.0,6.0,78,0.00,,OVC049,0.01,VWS V14.01,2013-06-02 23:11:00,
2013-06-02 18:13:00,61.9,54.6,29.93,WNW,302,0.0,6.0,77,0.00,,OVC049,0.01,VWS V14.01,2013-06-02 23:13:00,
2013-06-02 18:14:00,61.9,54.6,29.93,NW,325,0.0,6.0,77,0.00,,OVC049,0.01,VWS V14.01,2013-06-02 23:14:00,
2013-06-02 18:16:00,62.0,55.1,29.93,WNW,299,5.0,8.0,78,0.00,,OVC049,0.01,VWS V14.01,2013-06-02 23:16:00,
2013-06-02 18:18:00,62.0,54.0,29.93,NW,309,6.0,9.0,75,0.00,,OVC049,0.01,VWS V14.01,2013-06-02 23:18:00,
2013-06-02 18:19:00,62.0,54.4,29.93,NW,311,0.0,9.0,76,0.00,,OVC049,0.01,VWS V14.01,2013-06-02 23:19:00,
2013-06-02 18:21:00,62.0,54.4,29.93,NNE,15,3.0,9.0,76,0.00,,OVC049,0.01,VWS V14.01,2013-06-02 23:21:00,
2013-06-02 18:23:00,62.0,54.4,29.93,NNW,328,0.0,9.0,76,0.00,,OVC049,0.01,VWS V14.01,2013-06-02 23:23:00,
2013-06-02 18:24:00,62.0,54.4,29.93,NW,318,0.0,9.0,76,0.00,,OVC049,0.01,VWS V14.01,2013-06-02 23:24:00,
2013-06-02 18:26:00,62.0,54.0,29.93,NNW,327,7.0,9.0,75,0.00,,OVC049,0.01,VWS V14.01,2013-06-02 23:26:00,
2013-06-02 18:28:00,62.2,54.5,29.93,NNW,329,6.0,9.0,76,0.00,,OVC049,0.01,VWS V14.01,2013-06-02 23:28:00,
2013-06-02 18:29:00,62.2,54.5,29.93,NW,310,7.0,9.0,76,0.00,,OVC049,0.01,VWS V14.01,2013-06-02 23:29:00,
2013-06-02 18:30:00,62.2,54.5,29.92,NW,311,4.0,9.0,76,0.00,,,0.01,VWS V14.01,2013-06-02 23:30:00,
2013-06-02 18:31:00,62.2,54.2,29.92,NW,317,2.0,8.0,75,0.00,,OVC049,0.01,VWS V14.01,2013-06-02 23:31:00,
2013-06-02 18:32:00,62.2,54.2,29.92,NW,317,0.0,8.0,75,0.00,,OVC049,0.01,VWS V14.01,2013-06-02 23:32:00,
2013-06-02 18:34:00,62.2,54.5,29.92,NNW,327,0.0,8.0,76,0.00,,OVC049,0.01,VWS V14.01,2013-06-02 23:34:00,
2013-06-02 18:37:00,62.2,54.5,29.92,WNW,298,0.0,9.0,76,0.00,,OVC049,0.01,VWS V14.01,2013-06-02 23:37:00,
2013-06-02 18:39:00,62.0,54.0,29.92,NW,322,1.0,9.0,75,0.00,,OVC049,0.01,VWS V14.01,2013-06-02 23:39:00,
2013-06-02 18:42:00,62.0,54.4,29.92,WNW,293,0.0,10.0,76,0.00,,OVC049,0.01,VWS V14.01,2013-06-02 23:42:00,
2013-06-02 18:44:00,62.0,54.0,29.92,NNW,327,0.0,10.0,75,0.00,,OVC049,0.01,VWS V14.01,2013-06-02 23:44:00,
2013-06-02 18:45:00,62.0,54.0,29.92,NW,319,5.0,10.0,75,0.00,,OVC049,0.01,VWS V14.01,2013-06-02 23:45:00,
2013-06-02 18:47:00,62.0,54.0,29.92,NW,325,3.0,10.0,75,0.00,,OVC049,0.01,VWS V14.01,2013-06-02 23:47:00,
2013-06-02 18:49:00,62.0,54.4,29.92,NW,315,0.0,10.0,76,0.00,,OVC049,0.01,VWS V14.01,2013-06-02 23:49:00,
2013-06-02 18:50:00,62.0,54.4,29.92,NW,315,0.0,10.0,76,0.00,,OVC049,0.01,VWS V14.01,2013-06-02 23:50:00,
2013-06-02 18:52:00,62.0,54.7,29.92,NNW,337,0.0,10.0,77,0.00,,OVC049,0.01,VWS V14.01,2013-06-02 23:52:00,
2013-06-02 18:54:00,62.0,54.7,29.92,NW,311,0.0,10.0,77,0.00,,OVC049,0.01,VWS V14.01,2013-06-02 23:54:00,
2013-06-02 18:55:00,62.0,54.7,29.92,NW,311,0.0,10.0,77,0.00,,OVC049,0.01,VWS V14.01,2013-06-02 23:55:00,
2013-06-02 18:57:00,62.0,54.7,29.92,NNW,340,0.0,10.0,77,0.00,,OVC049,0.01,VWS V14.01,2013-06-02 23:57:00,
2013-06-02 19:00:00,62.0,54.7,29.93,NW,315,0.0,10.0,77,0.00,,OVC049,0.01,VWS V14.01,2013-06-03 00:00:00,
2013-06-02 19:02:00,62.0,54.7,29.93,NW,325,5.0,7.0,77,0.00,,OVC047,0.01,VWS V14.01,2013-06-03 00:02:00,
2013-06-02 19:05:00,61.7,54.1,29.93,NW,315,4.0,12.0,76,0.00,,OVC047,0.01,VWS V14.01,2013-06-03 00:05:00,
2013-06-02 19:07:00,61.7,54.1,29.93,NNW,344,2.0,12.0,76,0.00,,OVC047,0.01,VWS V14.01,2013-06-03 00:07:00,
2013-06-02 19:08:00,61.7,54.1,29.93,NW,321,0.0,12.0,76,0.00,,OVC047,0.01,VWS V14.01,2013-06-03 00:08:00,
2013-06-02 19:10:00,61.7,54.4,29.93,NNW,331,0.0,12.0,77,0.00,,OVC047,0.01,VWS V14.01,2013-06-03 00:10:00,
2013-06-02 19:11:00,61.7,54.4,29.93,NW,319,0.0,12.0,77,0.00,,OVC047,0.01,VWS V14.01,2013-06-03 00:11:00,
2013-06-02 19:12:00,61.7,54.4,29.93,NW,304,0.0,12.0,77,0.00,,OVC047,0.01,VWS V14.01,2013-06-03 00:12:00,
2013-06-02 19:13:00,61.7,54.4,29.93,NW,315,0.0,12.0,77,0.00,,OVC047,0.01,VWS V14.01,2013-06-03 00:13:00,
2013-06-02 19:15:00,61.5,54.2,29.93,NW,324,2.0,12.0,77,0.00,,OVC047,0.01,VWS V14.01,2013-06-03 00:15:00,
2013-06-02 19:16:00,61.5,54.2,29.93,NW,308,3.0,12.0,77,0.00,,OVC047,0.01,VWS V14.01,2013-06-03 00:16:00,
2013-06-02 19:17:00,61.5,54.2,29.93,NW,315,0.0,12.0,77,0.00,,OVC047,0.01,VWS V14.01,2013-06-03 00:17:00,
2013-06-02 19:18:00,61.5,54.2,29.93,NW,318,0.0,12.0,77,0.00,,OVC047,0.01,VWS V14.01,2013-06-03 00:18:00,
2013-06-02 19:20:00,61.5,54.2,29.93,NW,318,0.0,12.0,77,0.00,,OVC047,0.01,VWS V14.01,2013-06-03 00:20:00,
2013-06-02 19:21:00,61.4,54.1,29.93,North,355,0.0,12.0,77,0.00,,OVC047,0.01,VWS V14.01,2013-06-03 00:21:00,
2013-06-02 19:22:00,61.4,54.5,29.93,NNW,327,0.0,12.0,78,0.00,,OVC047,0.01,VWS V14.01,2013-06-03 00:22:00,
2013-06-02 19:23:00,61.4,54.5,29.93,NW,313,1.0,12.0,78,0.00,,OVC047,0.01,VWS V14.01,2013-06-03 00:23:00,
2013-06-02 19:25:00,61.4,54.1,29.93,NW,312,0.0,12.0,77,0.00,,OVC047,0.01,VWS V14.01,2013-06-03 00:25:00,
2013-06-02 19:30:00,61.2,54.3,29.93,NNW,327,3.0,12.0,78,0.00,,,0.01,VWS V14.01,2013-06-03 00:30:00,
2013-06-02 19:34:00,61.2,54.3,29.93,NW,310,0.0,5.0,78,0.00,,OVC047,0.01,VWS V14.01,2013-06-03 00:34:00,
2013-06-02 19:35:00,61.2,54.3,29.93,NW,313,2.0,5.0,78,0.00,,OVC047,0.01,VWS V14.01,2013-06-03 00:35:00,
2013-06-02 19:39:00,61.1,54.2,29.93,NW,314,0.0,7.0,78,0.00,,OVC047,0.01,VWS V14.01,2013-06-03 00:39:00,
2013-06-02 19:40:00,61.1,54.2,29.93,NW,316,1.0,7.0,78,0.00,,OVC047,0.01,VWS V14.01,2013-06-03 00:40:00,
2013-06-02 19:45:00,61.1,54.5,29.93,NW,306,4.0,7.0,79,0.00,,OVC047,0.01,VWS V14.01,2013-06-03 00:45:00,
2013-06-02 19:50:00,60.9,54.3,29.93,NW,325,6.0,7.0,79,0.00,,OVC037,0.01,VWS V14.01,2013-06-03 00:50:00,
2013-06-02 19:55:00,60.9,54.3,29.93,WNW,301,0.0,7.0,79,0.00,,OVC037,0.01,VWS V14.01,2013-06-03 00:55:00,
2013-06-02 20:00:00,60.8,54.6,29.93,NW,315,3.0,7.0,80,0.00,,OVC037,0.01,VWS V14.01,2013-06-03 01:00:00,
2013-06-02 20:05:00,60.6,54.4,29.93,NW,313,0.0,7.0,80,0.00,,OVC037,0.01,VWS V14.01,2013-06-03 01:05:00,
2013-06-02 20:06:00,60.6,54.4,29.93,NW,313,0.0,7.0,80,0.00,,OVC037,0.01,VWS V14.01,2013-06-03 01:06:00,
2013-06-02 20:10:00,60.6,54.4,29.93,NW,307,0.0,7.0,80,0.00,,OVC037,0.01,VWS V14.01,2013-06-03 01:10:00,
2013-06-02 20:11:00,60.6,54.4,29.93,NNW,334,1.0,7.0,80,0.00,,OVC037,0.01,VWS V14.01,2013-06-03 01:11:00,
2013-06-02 20:15:00,60.4,54.2,29.93,NNW,331,4.0,7.0,80,0.00,,OVC037,0.01,VWS V14.01,2013-06-03 01:15:00,
2013-06-02 20:16:00,60.4,54.2,29.93,NNW,334,3.0,7.0,80,0.00,,OVC037,0.01,VWS V14.01,2013-06-03 01:16:00,
2013-06-02 20:20:00,60.4,54.2,29.93,NW,313,0.0,7.0,80,0.00,,OVC037,0.01,VWS V14.01,2013-06-03 01:20:00,
2013-06-02 20:21:00,60.4,54.2,29.93,NW,313,0.0,7.0,80,0.00,,OVC037,0.01,VWS V14.01,2013-06-03 01:21:00,
2013-06-02 20:26:00,60.3,53.8,29.93,NNW,336,5.0,7.0,79,0.00,,OVC037,0.01,VWS V14.01,2013-06-03 01:26:00,
2013-06-02 20:30:00,60.3,53.8,29.94,NW,306,0.0,7.0,79,0.00,,,0.01,VWS V14.01,2013-06-03 01:30:00,
2013-06-02 20:31:00,60.3,53.8,29.94,NW,306,0.0,0.0,79,0.00,,OVC037,0.01,VWS V14.01,2013-06-03 01:31:00,
2013-06-02 20:32:00,60.3,53.8,29.94,NNW,331,0.0,1.0,79,0.00,,OVC037,0.01,VWS V14.01,2013-06-03 01:32:00,
2013-06-02 20:36:00,60.1,53.6,29.94,NW,326,0.0,6.0,79,0.00,,OVC037,0.01,VWS V14.01,2013-06-03 01:36:00,
2013-06-02 20:37:00,60.1,53.6,29.94,NW,312,0.0,6.0,79,0.00,,OVC037,0.01,VWS V14.01,2013-06-03 01:37:00,
2013-06-02 20:41:00,60.1,53.6,29.94,NNW,327,4.0,6.0,79,0.00,,OVC037,0.01,VWS V14.01,2013-06-03 01:41:00,
2013-06-02 20:42:00,60.1,53.6,29.94,NW,312,0.0,9.0,79,0.00,,OVC037,0.01,VWS V14.01,2013-06-03 01:42:00,
2013-06-02 20:46:00,60.1,53.9,29.95,NNW,338,3.0,9.0,80,0.00,,OVC039,0.01,VWS V14.01,2013-06-03 01:46:00,
2013-06-02 20:47:00,60.0,53.8,29.95,NNW,327,3.0,9.0,80,0.00,,OVC039,0.01,VWS V14.01,2013-06-03 01:47:00,
2013-06-02 20:52:00,60.0,53.8,29.95,NW,326,0.0,9.0,80,0.00,,OVC039,0.01,VWS V14.01,2013-06-03 01:52:00,
2013-06-02 20:53:00,60.0,53.8,29.95,NNW,328,0.0,9.0,80,0.00,,OVC039,0.01,VWS V14.01,2013-06-03 01:53:00,
2013-06-02 20:57:00,59.8,53.3,29.95,NNW,340,0.0,9.0,79,0.00,,OVC039,0.01,VWS V14.01,2013-06-03 01:57:00,
2013-06-02 20:58:00,59.8,53.3,29.95,NNW,340,0.0,9.0,79,0.00,,OVC039,0.01,VWS V14.01,2013-06-03 01:58:00,
2013-06-02 21:00:00,59.8,53.3,29.95,NNW,330,0.0,9.0,79,0.00,,,0.01,VWS V14.01,2013-06-03 02:00:00,
2013-06-02 21:02:00,59.8,53.3,29.95,NW,322,0.0,3.0,79,0.00,,OVC039,0.01,VWS V14.01,2013-06-03 02:02:00,
2013-06-02 21:03:00,59.8,53.3,29.95,NW,325,0.0,3.0,79,0.00,,OVC039,0.01,VWS V14.01,2013-06-03 02:03:00,
2013-06-02 21:07:00,59.8,53.3,29.95,NW,325,0.0,3.0,79,0.00,,OVC039,0.01,VWS V14.01,2013-06-03 02:07:00,
2013-06-02 21:08:00,59.8,53.3,29.95,NW,325,0.0,3.0,79,0.00,,OVC039,0.01,VWS V14.01,2013-06-03 02:08:00,
2013-06-02 21:12:00,59.7,53.2,29.95,NNE,19,0.0,3.0,79,0.00,,OVC039,0.01,VWS V14.01,2013-06-03 02:12:00,
2013-06-02 21:13:00,59.7,53.2,29.95,North,11,0.0,3.0,79,0.00,,OVC039,0.01,VWS V14.01,2013-06-03 02:13:00,
2013-06-02 21:14:00,59.7,53.2,29.95,NW,317,0.0,3.0,79,0.00,,OVC039,0.01,VWS V14.01,2013-06-03 02:14:00,
2013-06-02 21:18:00,59.7,53.5,29.95,NW,314,0.0,3.0,80,0.00,,OVC039,0.01,VWS V14.01,2013-06-03 02:18:00,
2013-06-02 21:19:00,59.7,53.5,29.95,NW,314,0.0,3.0,80,0.00,,OVC039,0.01,VWS V14.01,2013-06-03 02:19:00,
2013-06-02 21:23:00,59.7,53.5,29.95,NW,309,0.0,3.0,80,0.00,,OVC039,0.01,VWS V14.01,2013-06-03 02:23:00,
2013-06-02 21:24:00,59.5,53.3,29.95,NNW,338,2.0,3.0,80,0.00,,OVC039,0.01,VWS V14.01,2013-06-03 02:24:00,
2013-06-02 21:28:00,59.5,53.7,29.95,NNW,333,0.0,4.0,81,0.00,,OVC039,0.01,VWS V14.01,2013-06-03 02:28:00,
2013-06-02 21:29:00,59.5,53.7,29.95,NNW,333,0.0,4.0,81,0.00,,OVC039,0.01,VWS V14.01,2013-06-03 02:29:00,
2013-06-02 21:30:00,59.5,53.7,29.96,NNW,330,0.0,4.0,81,0.00,,,0.01,VWS V14.01,2013-06-03 02:30:00,
2013-06-02 21:33:00,59.4,53.6,29.96,WNW,303,0.0,5.0,81,0.00,,OVC039,0.01,VWS V14.01,2013-06-03 02:33:00,
2013-06-02 21:34:00,59.4,53.6,29.96,NW,311,0.0,5.0,81,0.00,,OVC039,0.01,VWS V14.01,2013-06-03 02:34:00,
2013-06-02 21:38:00,59.4,53.2,29.96,NW,311,0.0,5.0,80,0.00,,OVC039,0.01,VWS V14.01,2013-06-03 02:38:00,
2013-06-02 21:39:00,59.4,53.2,29.96,NW,311,0.0,5.0,80,0.00,,OVC039,0.01,VWS V14.01,2013-06-03 02:39:00,
2013-06-02 21:43:00,59.4,53.2,29.96,NNW,328,0.0,5.0,80,0.00,,OVC039,0.01,VWS V14.01,2013-06-03 02:43:00,
2013-06-02 21:44:00,59.4,53.2,29.96,NNW,331,0.0,5.0,80,0.00,,OVC039,0.01,VWS V14.01,2013-06-03 02:44:00,
2013-06-02 21:48:00,59.4,53.6,29.97,NW,323,0.0,5.0,81,0.00,,OVC039,0.01,VWS V14.01,2013-06-03 02:48:00,
2013-06-02 21:49:00,59.4,53.6,29.97,NNW,335,0.0,5.0,81,0.00,,OVC039,0.01,VWS V14.01,2013-06-03 02:49:00,
2013-06-02 21:56:00,59.2,53.4,29.97,NNW,329,4.0,5.0,81,0.00,,OVC039,0.01,VWS V14.01,2013-06-03 02:56:00,
2013-06-02 21:57:00,59.2,53.4,29.97,NW,318,1.0,5.0,81,0.00,,OVC039,0.01,VWS V14.01,2013-06-03 02:57:00,
2013-06-02 22:00:00,59.2,53.4,29.97,WNW,296,0.0,5.0,81,0.00,,,0.01,VWS V14.01,2013-06-03 03:00:00,
2013-06-02 22:01:00,59.2,53.4,29.97,WNW,296,0.0,0.0,81,0.00,,OVC039,0.01,VWS V14.01,2013-06-03 03:01:00,
2013-06-02 22:02:00,59.2,53.4,29.97,NNW,332,0.0,0.0,81,0.00,,OVC039,0.01,VWS V14.01,2013-06-03 03:02:00,
2013-06-02 22:06:00,59.2,53.4,29.97,NW,324,0.0,3.0,81,0.00,,OVC039,0.01,VWS V14.01,2013-06-03 03:06:00,
2013-06-02 22:07:00,59.2,53.4,29.97,NW,325,0.0,3.0,81,0.00,,OVC039,0.01,VWS V14.01,2013-06-03 03:07:00,
2013-06-02 22:11:00,59.1,53.3,29.97,NNW,333,0.0,3.0,81,0.00,,OVC039,0.01,VWS V14.01,2013-06-03 03:11:00,
2013-06-02 22:12:00,59.1,53.3,29.97,NNW,333,0.0,3.0,81,0.00,,OVC039,0.01,VWS V14.01,2013-06-03 03:12:00,
2013-06-02 22:16:00,59.1,53.3,29.97,NW,325,0.0,3.0,81,0.00,,OVC039,0.01,VWS V14.01,2013-06-03 03:16:00,
2013-06-02 22:17:00,59.1,53.3,29.97,NW,325,0.0,3.0,81,0.00,,OVC039,0.01,VWS V14.01,2013-06-03 03:17:00,
2013-06-02 22:21:00,59.1,53.3,29.97,NW,315,0.0,4.0,81,0.00,,OVC039,0.01,VWS V14.01,2013-06-03 03:21:00,
2013-06-02 22:22:00,59.1,53.3,29.97,NW,315,0.0,4.0,81,0.00,,OVC039,0.01,VWS V14.01,2013-06-03 03:22:00,
2013-06-02 22:23:00,59.1,53.3,29.97,NW,313,0.0,4.0,81,0.00,,OVC039,0.01,VWS V14.01,2013-06-03 03:23:00,
2013-06-02 22:26:00,59.1,53.3,29.97,NW,323,0.0,4.0,81,0.00,,OVC039,0.01,VWS V14.01,2013-06-03 03:26:00,
2013-06-02 22:27:00,59.1,53.3,29.97,NW,323,0.0,4.0,81,0.00,,OVC039,0.01,VWS V14.01,2013-06-03 03:27:00,
2013-06-02 22:28:00,58.9,53.1,29.97,NW,323,0.0,4.0,81,0.00,,OVC039,0.01,VWS V14.01,2013-06-03 03:28:00,
2013-06-02 22:30:00,58.9,53.1,29.97,NNW,329,0.0,4.0,81,0.00,,,0.01,VWS V14.01,2013-06-03 03:30:00,
2013-06-02 22:32:00,58.9,53.1,29.97,NNW,339,0.0,5.0,81,0.00,,OVC039,0.01,VWS V14.01,2013-06-03 03:32:00,
2013-06-02 22:34:00,58.9,53.1,29.97,NW,319,0.0,5.0,81,0.00,,OVC039,0.01,VWS V14.01,2013-06-03 03:34:00,
2013-06-02 22:37:00,58.9,53.1,29.97,NW,319,0.0,5.0,81,0.00,,OVC039,0.01,VWS V14.01,2013-06-03 03:37:00,
2013-06-02 22:39:00,58.9,53.1,29.97,NW,319,0.0,5.0,81,0.00,,OVC039,0.01,VWS V14.01,2013-06-03 03:39:00,
2013-06-02 22:42:00,58.9,53.1,29.97,NW,320,0.0,5.0,81,0.00,,OVC039,0.01,VWS V14.01,2013-06-03 03:42:00,
2013-06-02 22:44:00,58.9,53.1,29.97,NW,320,0.0,5.0,81,0.00,,OVC039,0.01,VWS V14.01,2013-06-03 03:44:00,
2013-06-02 22:47:00,58.9,53.1,29.97,NW,320,0.0,5.0,81,0.00,,OVC039,0.01,VWS V14.01,2013-06-03 03:47:00,
2013-06-02 22:48:00,58.9,53.1,29.97,NW,320,0.0,5.0,81,0.00,,OVC039,0.01,VWS V14.01,2013-06-03 03:48:00,
2013-06-02 22:49:00,58.9,53.1,29.97,NW,311,0.0,5.0,81,0.00,,OVC039,0.01,VWS V14.01,2013-06-03 03:49:00,
2013-06-02 22:52:00,58.9,53.1,29.97,NW,316,0.0,5.0,81,0.00,,OVC039,0.01,VWS V14.01,2013-06-03 03:52:00,
2013-06-02 22:53:00,58.9,53.4,29.97,NW,316,0.0,5.0,82,0.00,,OVC039,0.01,VWS V14.01,2013-06-03 03:53:00,
2013-06-02 22:54:00,58.9,53.4,29.97,NW,316,0.0,5.0,82,0.00,,OVC039,0.01,VWS V14.01,2013-06-03 03:54:00,
2013-06-02 22:57:00,58.8,53.3,29.97,NW,310,0.0,5.0,82,0.00,,OVC039,0.01,VWS V14.01,2013-06-03 03:57:00,
2013-06-02 22:58:00,58.8,53.3,29.97,NW,313,0.0,5.0,82,0.00,,OVC039,0.01,VWS V14.01,2013-06-03 03:58:00,
2013-06-02 22:59:00,58.8,53.3,29.97,NW,314,0.0,5.0,82,0.00,,OVC039,0.01,VWS V14.01,2013-06-03 03:59:00,
2013-06-02 23:00:00,58.8,53.3,29.97,NW,313,0.0,5.0,82,0.00,,,0.01,VWS V14.01,2013-06-03 04:00:00,
2013-06-02 23:01:00,58.8,53.3,29.97,NW,313,0.0,0.0,82,0.00,,OVC041,0.01,VWS V14.01,2013-06-03 04:01:00,
2013-06-02 23:06:00,58.8,53.3,29.97,NNW,329,0.0,1.0,82,0.00,,OVC041,0.01,VWS V14.01,2013-06-03 04:06:00,
2013-06-02 23:07:00,58.8,53.3,29.97,NNW,329,0.0,1.0,82,0.00,,OVC041,0.01,VWS V14.01,2013-06-03 04:07:00,
2013-06-02 23:11:00,58.8,53.3,29.97,NW,318,0.0,6.0,82,0.00,,OVC041,0.01,VWS V14.01,2013-06-03 04:11:00,
2013-06-02 23:12:00,58.8,53.3,29.97,NW,318,0.0,6.0,82,0.00,,OVC041,0.01,VWS V14.01,2013-06-03 04:12:00,
2013-06-02 23:17:00,58.6,53.1,29.97,NW,304,0.0,6.0,82,0.00,,OVC041,0.01,VWS V14.01,2013-06-03 04:17:00,
2013-06-02 23:22:00,58.6,53.1,29.97,NW,316,0.0,6.0,82,0.00,,OVC041,0.01,VWS V14.01,2013-06-03 04:22:00,
2013-06-02 23:27:00,58.6,53.1,29.97,WNW,294,0.0,6.0,82,0.00,,OVC041,0.01,VWS V14.01,2013-06-03 04:27:00,
2013-06-02 23:30:00,58.6,53.1,29.97,NW,306,0.0,6.0,82,0.00,,,0.01,VWS V14.01,2013-06-03 04:30:00,
2013-06-02 23:32:00,58.6,53.1,29.97,NW,325,0.0,1.0,82,0.00,,OVC041,0.01,VWS V14.01,2013-06-03 04:32:00,
2013-06-02 23:33:00,58.6,53.1,29.97,NW,325,2.0,3.0,82,0.00,,OVC041,0.01,VWS V14.01,2013-06-03 04:33:00,
2013-06-02 23:37:00,58.5,53.0,29.97,NW,315,0.0,4.0,82,0.00,,OVC041,0.01,VWS V14.01,2013-06-03 04:37:00,
2013-06-02 23:38:00,58.5,53.0,29.97,NW,315,0.0,4.0,82,0.00,,OVC041,0.01,VWS V14.01,2013-06-03 04:38:00,
2013-06-02 23:42:00,58.5,53.0,29.97,NW,309,0.0,4.0,82,0.00,,OVC041,0.01,VWS V14.01,2013-06-03 04:42:00,
2013-06-02 23:43:00,58.5,53.0,29.97,NW,310,1.0,4.0,82,0.00,,OVC041,0.01,VWS V14.01,2013-06-03 04:43:00,
2013-06-02 23:47:00,58.5,53.0,29.97,NNW,333,0.0,4.0,82,0.00,,OVC041,0.01,VWS V14.01,2013-06-03 04:47:00,
2013-06-02 23:48:00,58.5,53.0,29.97,NNW,333,0.0,4.0,82,0.00,,OVC041,0.01,VWS V14.01,2013-06-03 04:48:00,
2013-06-02 23:52:00,58.5,53.4,29.97,NW,323,0.0,4.0,83,0.00,,OVC041,0.01,VWS V14.01,2013-06-03 04:52:00,
2013-06-02 23:53:00,58.5,53.4,29.97,NW,323,0.0,4.0,83,0.00,,OVC041,0.01,VWS V14.01,2013-06-03 04:53:00,
2013-06-02 23:54:00,58.5,53.4,29.97,NW,323,0.0,4.0,83,0.00,,OVC041,0.01,VWS V14.01,2013-06-03 04:54:00,
2013-06-02 23:58:00,58.5,53.4,29.97,NW,323,0.0,4.0,83,0.00,,OVC041,0.01,VWS V14.01,2013-06-03 04:58:00,
2013-06-02 23:59:00,58.5,53.4,29.97,NW,323,0.0,4.0,83,0.00,,OVC041,0.01,VWS V14.01,2013-06-03 04:59:00,